     2              OBSERVATION DATA    GPS                 RINEX VERSION / TYPE
teqc 1997Sep10 19970910 18:58:53UTC                         PGM / RUN BY / DATE
                                                            COMMENT
BIT 2 OF LLI FLAGS DATA COLLECTED UNDER A-S CONDITION       COMMENT
BIT 2 OF LLI FLAGS DATA COLLECTED UNDER A-S CONDITION       COMMENT
Original Marker Name: unknown                               COMMENT
Campaign Name: Southern California GPS Survey March - A     COMMENT
4-Character Station Name: CABA                              COMMENT
6-Character Antenna Code: TI4100                            COMMENT
Vertical Measurement Point: PAE                             COMMENT
Vertical Offset to Rinex Ref. Point: 0.0000                 COMMENT
Radial Measurement Point: RRP                               COMMENT
Radial Offset to Rinex Ref. Point: 0.0000                   COMMENT
Antenna Height from Field Measurement: 1.5644 m             COMMENT
Original XYZ: 0.0000 0.0000 0.0000                          COMMENT
New XYZ position is based on association with SCEC monument COMMENT
E1D0P9K2+0011. Position of that monument is believed to be  COMMENT
valid to within 1 m horizontally; vertical accuracy         COMMENT
should be no worse than 3-times this value.                 COMMENT
                                                            COMMENT
Revised Rinex header created by UCSD GPS archive for        COMMENT
GSAC on 12-Apr-1999 (1999:102) 20:22:55 GMT                 COMMENT
For assistance contact dagnew@ucsd.edu or hjohnson@ucsd.edu COMMENT
                                                            COMMENT
CABAZON                                                     MARKER NAME
unknown NATIONAL GEODETIC SURVEY                            OBSERVER / AGENCY
08 TI 4100 GSI TI4100                                       REC # / TYPE / VERS
133 TI 4100                                                 ANT # / TYPE
 -2387127.0000 -4730727.0000  3538987.0000                  APPROX POSITION XYZ
        1.5644        0.0000        0.0000                  ANTENNA: DELTA H/E/N
     1     1     0                                          WAVELENGTH FACT L1/2
     6    L1    L2    P1    P2    D1    D2                  # / TYPES OF OBSERV
     0                                                      INTERVAL
  1988     3    25     3    15   23.000000                  TIME OF FIRST OBS
  1988     3    25     8    19   59.000000                  TIME OF LAST OBS
     0                                                      # OF SATELLITES
                                                            END OF HEADER
 88  3 25  3 15 23.4400000  0  3G 6G 9G11
   4925906.793 9  -7777222.489 8  17517101.143    17517106.018        1708.043
      1300.222
    133639.742 6                                                        -0.500 1
      2964.323
    128130.262 8    -27463.025 9  18727972.365    18727981.036        3111.426
      2394.991
 88  3 25  3 40 29.0800000  0  3G 6G 9G11
   2684962.083 8  -9523412.028 9  17090662.888    17090666.767        1272.907
       985.326
  -4352289.757 9  -3463983.124 8  19223575.154    19223578.672        2967.609
      2296.385
  -4032830.928 9  -3269767.941 6  17936166.410    17936170.311        2413.678
      1896.745
 88  3 25  3 40 59.0800000  0  3G 6G 9G11
   2647053.974 8  -9552950.807 8  17083449.643    17083452.590        1256.687
       981.691
  -4441208.506 8  -3533270.388 9  19206654.818    19206657.922        2978.382
      2315.237
  -4104832.400 7  -3325872.942 7  17922464.501    17922470.221        2376.270
      1855.169
 88  3 25  3 41 29.0800000  0  3G 6G 9G11
   2609448.185 9  -9582254.013 8  17076292.849    17076295.528        1258.138
       975.111
  -4530079.498 8  -3602520.478 8  19189743.058    19189747.882        2948.662
      2309.856
  -4176371.971 8  -3381618.013 7  17908851.030    17908855.720        2377.770
      1855.287
 88  3 25  3 41 59.0800000  0  3G 6G 9G11
   2572148.104 8  -9611318.992 8  17069194.627    17069198.489        1229.749
       971.059
  -4618899.709 8  -3671730.951 8  19172840.272    19172845.922        2966.796
      2303.413
  -4247446.865 9  -3437001.030 6  17895326.893    17895331.400        2357.172
      1836.608
 88  3 25  3 42 29.0800000  0  3G 6G 9G11
   2535154.324 9  -9640145.306 8  17062155.193    17062158.898        1227.413
       947.534
  -4707669.196 7  -3740901.904 8  19155946.316    19155952.559        2924.308
      2307.874
  -4318056.962 8  -3492021.846 6  17881888.660    17881894.723        2348.273
      1833.595
 88  3 25  3 42 59.0800000  0  3G 6G 9G11
   2498469.879 9  -9668730.579 8  17055175.237    17055177.166        1216.998
       948.012
  -4796385.018 7  -3810031.061 8  19139065.397    19139071.618        2967.425
      2299.050
  -4388199.646 8  -3546678.455 7  17868541.782    17868546.121        2333.783
      1825.703
 88  3 25  3 43 29.0800000  0  3G 6G 9G11
   2462094.963 9  -9697074.655 8  17048252.870    17048257.474        1204.909
       937.623
  -4885047.426 8  -3879118.591 8  19122194.048    19122198.801        2954.778
      2312.075
  -4457875.017 8  -3600970.913 7  17855282.588    17855288.862        2312.452
      1797.983
 88  3 25  3 43 59.0800000  0  3G 6G 9G11
   2426031.896 9  -9725175.724 7  17041390.070    17041393.972        1199.399
       935.976
  -4973654.427 8  -3948162.915 8  19105333.271    19105337.348        2952.553
      2291.159
  -4527081.375 8  -3654897.902 7  17842112.465    17842117.980        2287.468
      1792.764
 88  3 25  3 44 29.0800000  0  3G 6G 9G11
   2390285.626 9  -9753029.969 8  17034588.540    17034591.463        1174.152
       922.623
  -5062201.684 9  -4017160.711 8  19088482.390    19088486.258        2932.386
      2301.318
  -4595814.418 8  -3708456.083 7  17829033.242    17829038.523        2295.275
      1789.756
 88  3 25  3 44 59.0800000  0  3G 6G 9G11
   2354856.777 9  -9780636.860 8  17027845.623    17027850.060        1189.232
       909.735
  -5150688.820 8  -4086111.650 8  19071643.600    19071649.510        2947.226
      2298.410
  -4664074.038 8  -3761645.363 7  17816043.528    17816049.269        2275.100
      1772.041
 88  3 25  3 45 29.0800000  0  3G 6G 9G11
   2319747.037 9  -9807995.084 7  17021165.067    17021169.142        1164.998
       906.877
  -5239114.227 8  -4155014.492 8  19054816.535    19054821.916        2937.737
      2294.415
  -4731858.993 8  -3814464.778 6  17803145.538    17803149.506        2252.764
      1754.530
 88  3 25  3 45 59.0800000  0  3G 6G 9G11
   2284959.053 9  -9835102.589 8  17014544.832    17014547.524        1162.757
       900.968
  -5327475.766 8  -4223867.568 9  19038001.582    19038006.174        2948.869
      2291.526
  -4799167.102 9  -3866912.615 7  17790336.658    17790342.875        2243.960
      1714.762
 88  3 25  3 46 29.0800000  0  3G 6G 9G11
   2250494.987 8  -9861957.706 7  17007986.016    17007989.819        1137.885
       886.142
  -5415771.728 9  -4292669.548 8  19021199.303    19021204.569        2936.150
      2288.934
  -4865997.274 8  -3918988.045 7  17777618.339    17777623.675        2222.820
      1720.845
 88  3 25  3 46 59.0800000  0  3G 6G 9G11
   2216356.565 9  -9888559.057 8  17001489.370    17001493.394        1128.778
       895.841
  -5504000.239 8  -4361418.982 8  19004410.017    19004413.522        2938.654
      2280.161
  -4932348.047 8  -3970689.913 7  17764992.622    17764997.244        2209.694
      1747.478
 88  3 25  3 47 29.0800000  0  3G 6G 9G11
   2182545.548 7  -9914905.296 8  16995055.395    16995059.941        1115.804
       887.738
  -5592160.073 8  -4430114.895 8  18987634.182    18987638.632        2934.133
      2281.285
  -4998218.449 8  -4022017.471 7  17752458.964    17752463.730        2203.450
      1704.360
 88  3 25  3 47 59.0800000  0  3G 6G 9G11
   2149066.919 8  -9940992.553 7  16988685.329    16988689.472        1107.271
       860.000
  -5680246.211 8  -4498753.401 8  18970871.228    18970878.043        2920.744
      2294.968
  -5063604.208 8  -4072967.385 6  17740015.928    17740019.435        2181.513
      1672.539
 88  3 25  3 48 29.0800000  0  3G 6G 9G11
   2115922.514 8  -9966819.345 8  16982377.639    16982382.221        1097.192
       847.523
  -5768257.562 8  -4567333.593 8  18954125.741    18954128.244        2926.788
      2280.850
  -5128504.151 8  -4123538.740 6  17727665.933    17727672.382        2156.665
      1683.948
 88  3 25  3 48 59.0800000  0  3G 6G 9G11
   2083113.518 8  -9992384.784 8  16976135.182    16976137.977        1079.289
       846.846
  -5856192.736 8  -4635854.456 8  18937391.262    18937394.294        2928.774
      2270.983
  -5192917.388 7  -4173730.858 6  17715407.424    17715413.761        2159.169
      1658.235
 88  3 25  3 49 29.0800000  0  3G 6G 9G11
   2050641.188 8 -10017687.893 8  16969955.144    16969958.875        1073.835
       856.496
  -5944050.835 9  -4704315.284 8  18920671.903    18920676.354        2921.023
      2286.847
  -5256843.594 8  -4223543.444 7  17703243.022    17703248.780        2107.160
      1662.958
 88  3 25  3 49 59.0800000  0  3G 6G 9G11
   2018508.579 8 -10042726.287 9  16963838.576    16963843.582        1069.728
       832.753
  -6031829.100 9  -4772713.892 8  18903967.619    18903972.569        2926.023
      2278.949
  -5320280.649 8  -4272974.875 7  17691171.879    17691177.871        2122.096
      1629.621
 88  3 25  3 50 29.0800000  0  3G 6G 9G11
   1986718.823 8 -10067497.503 7  16957791.714    16957793.669        1039.800
       819.698
  -6119524.331 9  -4841047.793 8  18887280.280    18887283.484        2930.361
      2271.815
  -5383225.962 8  -4322023.156 7  17679193.362    17679199.772        2081.459
      1636.499
 88  3 25  3 50 59.0800000  0  3G 6G 9G11
   1955274.915 8 -10091999.254 8  16951807.238    16951810.772        1022.472
       817.541
  -6207133.854 9  -4909314.905 8  18870608.570    18870613.164        2920.464
      2279.521
  -5445677.622 8  -4370686.755 7  17667311.230    17667314.857        2084.170
      1617.268
 88  3 25  3 51 29.0800000  0  3G 6G 9G11
   1924176.445 8 -10116231.805 7  16945889.125    16945893.707        1041.555
       806.934
  -6294658.365 8  -4977515.785 8  18853953.001    18853957.049        2913.319
      2263.843
  -5507636.415 7  -4418966.303 6  17655518.962    17655524.836        2086.602
      1576.884
 88  3 25  3 51 59.0800000  0  3G 6G 9G11
   1893425.044 8 -10140193.929 7  16940038.729    16940040.888        1000.861
       793.413
  -6382096.287 8  -5045649.185 7  18837314.485    18837318.146        2915.457
      2260.463
  -5569101.677 7  -4466861.300 7  17643824.338    17643827.706        2052.089
      1567.290
 88  3 25  3 52 29.0800000  0  3G 6G 9G11
   1863022.204 8 -10163884.448 8  16934252.669    16934256.744         992.393
       793.351
  -6469446.151 7  -5113713.953 7  18820692.922    18820696.095        2927.984
      2260.941
  -5630072.987 7  -4514371.373 7  17632219.216    17632225.147        2034.864
      1579.202
 88  3 25  3 52 59.0800000  0  3G 6G 9G11
   1832974.501 8 -10187298.230 7  16928535.724    16928539.296         984.075
       775.542
  -6556701.511 9  -5181705.093 8  18804087.828    18804091.177        2912.602
      2266.863
  -5690544.204 8  -4561491.795 7  17620713.150    17620718.122        2017.161
      1567.197
 88  3 25  3 53 29.0800000  0  3G 6G 9G11
   1803283.795 8 -10210433.838 8  16922885.467    16922888.901         990.192
       763.121
  -6643860.636 7  -5249621.220 7  18787502.272    18787506.076        2912.275
      2254.504
  -5750514.292 8  -4608221.687 6  17609300.580    17609305.935        2002.983
      1543.038
 88  3 25  3 53 59.0800000  0  3G 6G 9G11
   1773950.576 8 -10233290.881 8  16917302.945    16917307.275         973.677
       766.439
  -6730923.276 8  -5317462.175 8  18770935.337    18770938.687        2899.508
      2271.281
  -5809983.971 9  -4654561.689 6  17597983.944    17597989.883        1973.135
      1535.470
 88  3 25  3 54 29.0800000  0  3G 6G 9G11
   1744976.252 8 -10255868.261 8  16911788.989    16911793.024         964.809
       755.143
  -6817887.869 8  -5385226.750 8  18754385.426    18754389.322        2889.931
      2264.688
  -5868952.803 8  -4700511.412 7  17586763.861    17586768.226        1949.036
      1519.382
 88  3 25  3 54 59.0800000  0  3G 6G 9G11
   1716363.941 8 -10278163.566 9  16906344.294    16906348.889         934.818
       742.758
  -6904751.319 9  -5452912.501 8  18737856.285    18737860.588        2913.854
      2252.522
  -5927418.205 9  -4746068.827 6  17575637.261    17575642.811        1953.319
      1483.647
 88  3 25  3 55 29.0800000  0  3G 6G 9G11
   1688115.831 8 -10300175.062 8  16900967.627    16900972.572         944.555
       724.471
  -6991511.648 9  -5520517.914 8  18721346.471    18721348.843        2897.634
      2235.906
  -5985379.007 8  -4791233.054 7  17564607.682    17564613.992        1919.133
      1482.087
 88  3 25  3 55 59.0800000  0  3G 6G 9G11
   1660233.892 8 -10321901.240 7  16895663.001    16895667.590         917.474
       705.929
  -7078166.830 8  -5588041.398 8  18704856.410    18704860.618        2880.401
      2253.466
  -6042834.130 8  -4836003.252 6  17553674.037    17553679.536        1899.659
      1504.307
 88  3 25  3 56 29.0800000  0  3G 6G 9G11
   1632720.263 9 -10343340.429 7  16890427.916    16890430.304         918.024
       706.557
  -7164714.622 8  -5655481.175 8  18688387.586    18688390.819        2888.998
      2249.545
  -6099782.684 9  -4880378.736 7  17542836.800    17542841.724        1898.471
      1490.184
 88  3 25  3 56 59.0800000  0  3G 6G 9G11
   1605576.908 8 -10364491.085 9  16885262.321    16885266.953         894.930
       697.957
  -7251153.366 8  -5722835.976 8  18671937.824    18671943.078        2873.304
      2258.108
  -6156223.296 7  -4924358.408 7  17532096.929    17532101.340        1863.902
      1460.569
 88  3 25  3 57 29.0800000  0  3G 6G 9G11
   1578807.467 8 -10385350.389 8  16880168.557    16880172.445         892.211
       685.331
  -7337479.100 8  -5790102.733 8  18655510.499    18655514.217        2891.526
      2236.161
  -6212153.682 7  -4967940.508 7  17521454.502    17521459.348        1856.781
      1462.364
 88  3 25  3 57 59.0800000  0  3G 6G 9G11
   1552412.544 9 -10405917.831 8  16875144.754    16875147.927         868.487
       694.794
  -7423691.311 8  -5857281.042 8  18639104.468    18639108.246        2880.290
      2248.302
  -6267574.080 8  -5011125.212 7  17510906.388    17510911.858        1832.826
      1436.726
 88  3 25  3 58 29.0800000  0  3G 6G 9G11
   1526394.782 8 -10426191.420 8  16870195.537    16870198.130         868.033
       669.175
  -7509787.286 9  -5924368.742 8  18622721.993    18622725.581        2871.861
      2222.223
  -6322482.891 7  -5053911.243 6  17500458.688    17500463.457        1820.266
      1428.412
 88  3 25  3 58 59.0800000  0  3G 6G 9G11
   1500757.994 9 -10446168.116 8  16865315.530    16865319.928         854.644
       650.546
  -7595763.210 8  -5991362.924 9  18606360.515    18606364.779        2868.113
      2226.324
  -6376877.491 7  -5096296.637 8  17490108.337    17490113.214        1791.965
      1410.908
 88  3 25  3 59 29.0800000  0  3G 6G 9G11
   1475503.971 8 -10465846.583 8  16860511.589    16860514.633         832.539
       648.731
  -7681617.168 9  -6058262.076 9  18590023.689    18590025.749        2865.250
      2232.147
  -6430756.900 8  -5138280.566 7  17479855.008    17479858.954        1780.299
      1416.258
 88  3 25  3 59 59.0800000  0  3G 6G 9G11
   1450630.310 8 -10485228.634 8  16855776.771    16855780.358         836.941
       640.231
  -7767351.248 8  -6125067.829 8  18573709.607    18573711.483        2861.103
      2229.214
  -6484124.557 7  -5179865.743 7  17469698.647    17469703.650        1790.801
      1360.632
 88  3 25  4  0 29.0800000  0  3G 6G 9G11
   1426142.042 8 -10504310.394 7  16851117.997    16851120.663         821.678
       645.693
  -7852960.457 8  -6191776.286 7  18557417.055    18557420.904        2836.542
      2211.635
  -6536976.810 8  -5221049.287 6  17459642.239    17459646.446        1756.472
      1369.965
 88  3 25  4  0 59.0800000  0  3G 6G 9G11
   1402044.145 8 -10523087.984 8  16846531.424    16846535.910         807.770
       605.776
  -7938439.702 8  -6258383.447 8  18541150.435    18541154.956        2860.378
      2224.535
  -6589309.505 8  -5261827.979 7  17449682.864    17449689.031        1738.537
      1356.332
 88  3 25  4  1 29.0800000  0  3G 6G 9G11
   1378336.346 9 -10541561.591 7  16842020.059    16842022.816         767.795
       607.845
  -8023788.987 9  -6324889.343 8  18524910.337    18524913.701        2843.743
      2221.105
  -6641124.289 8  -5302203.135 8  17439824.009    17439827.571        1727.437
      1333.838
 88  3 25  4  1 59.0800000  0  3G 6G 9G11
   1355020.180 8 -10559730.020 8  16837581.742    16837586.111         773.082
       606.602
  -8109006.754 8  -6391292.747 7  18508692.539    18508697.388        2859.261
      2216.469
  -6692420.714 8  -5342174.340 7  17430062.116    17430066.705        1723.849
      1334.155
 88  3 25  4  2 29.0800000  0  3G 6G 9G11
   1332097.755 9 -10577591.634 9  16833220.782    16833224.223         764.183
       593.429
  -8194090.631 8  -6457591.858 7  18492502.181    18492506.273        2841.311
      2202.712
  -6743197.666 7  -5381740.762 6  17420399.904    17420404.247        1691.800
      1321.765
 88  3 25  4  2 59.0800000  0  3G 6G 9G11
   1309574.703 8 -10595142.066 7  16828934.849    16828937.695         738.992
       586.786
  -8279034.792 8  -6523782.066 8  18476337.844    18476342.668        2834.477
      2210.672
  -6793450.707 8  -5420898.975 6  17410837.549    17410840.560        1666.728
      1309.387
 88  3 25  4  3 29.0800000  0  3G 6G 9G11
   1287450.532 9 -10612381.692 8  16824724.712    16824728.094         737.740
       581.995
  -8363839.602 8  -6589863.685 8  18460199.270    18460206.012        2820.705
      2216.171
  -6843181.458 9  -5459650.169 6  17401373.579    17401376.370        1664.232
      1281.481
 88  3 25  4  3 59.0800000  0  3G 6G 9G11
   1265724.274 9 -10629311.219 7  16820590.153    16820592.116         730.674
       563.012
  -8448505.724 7  -6655837.223 8  18444089.624    18444093.058        2822.388
      2207.441
  -6892392.419 8  -5497996.356 6  17392008.680    17392011.754        1616.099
      1275.187
 88  3 25  4  4 29.0800000  0  3G 6G 9G11
   1244401.329 9 -10645926.500 8  16816533.995    16816535.688         709.750
       558.290
  -8533027.294 9  -6721698.153 8  18428005.538    18428008.468        2817.420
      2179.951
  -6941079.011 8  -5535933.931 6  17382742.757    17382748.414        1609.656
      1262.914
 88  3 25  4  4 59.0800000  0  3G 6G 9G11
   1223484.267 9 -10662225.517 8  16812551.947    16812555.323         691.273
       529.837
  -8617401.882 8  -6787444.571 9  18411949.320    18411951.639        2805.052
      2196.772
  -6989240.193 9  -5573462.104 6  17373578.282    17373584.610        1600.892
      1270.358
 88  3 25  4  5 29.0800000  0  3G 6G 9G11
   1202974.427 8 -10678207.208 8  16808650.047    16808652.538         687.565
       537.716
  -8701627.384 8  -6853074.795 9  18395921.494    18395924.969        2807.556
      2170.810
  -7036875.870 8  -5610580.801 6  17364514.294    17364519.912        1564.912
      1241.328
 88  3 25  4  5 59.0800000  0  3G 6G 9G11
   1182873.947 9 -10693869.933 8  16804824.471    16804828.251         674.973
       520.833
  -8785701.748 8  -6918587.244 8  18379922.212    18379924.758        2801.870
      2182.660
  -7083985.178 8  -5647289.330 7  17355549.178    17355554.986        1560.271
      1202.709
 88  3 25  4  6 29.0800000  0  3G 6G 9G11
   1163184.041 9 -10709212.708 7  16801077.935    16801080.828         651.130
       522.436
  -8869623.066 8  -6983980.467 8  18363951.651    18363955.729        2777.133
      2162.509
  -7130567.841 9  -5683587.480 5  17346683.661    17346691.261        1573.253
      1212.154
 88  3 25  4  6 59.0800000  0  3G 6G 9G11
   1143907.523 8 -10724233.379 7  16797409.298    16797412.009         642.478
       497.662
  -8953388.841 8  -7049252.455 7  18348010.753    18348016.490        2801.750
      2180.467
  -7176622.948 8  -5719474.543 7  17337921.978    17337925.664        1512.592
      1197.819
 88  3 25  4  7 29.0800000  0  3G 6G 9G11
   1125046.185 9 -10738930.527 7  16793820.400    16793823.590         625.971
       478.207
  -9036996.174 8  -7114400.985 8  18332102.266    18332107.118        2785.044
      2176.658
  -7222149.619 8  -5754949.865 7  17329256.582    17329262.988        1496.388
      1184.093
 88  3 25  4  7 59.0800000  0  3G 6G 9G11
   1106602.794 8 -10753301.986 7  16790310.028    16790314.229         601.888
       466.450
  -9120442.261 8  -7179423.865 8  18316222.694    18316226.588        2773.162
      2167.933
  -7267146.432 8  -5790012.298 6  17320696.424    17320700.464        1505.566
      1156.870
 88  3 25  4  8 29.0800000  0  3G 6G 9G11
   1088578.360 8 -10767346.990 7  16786880.357    16786884.510         595.868
       469.948
  -9203725.601 9  -7244319.938 8  18300375.463    18300377.766        2776.751
      2156.686
  -7311613.822 8  -5824662.204 6  17312232.583    17312237.838        1469.052
      1151.371
 88  3 25  4  8 59.0800000  0  3G 6G 9G11
   1070975.073 8 -10781063.831 8  16783531.001    16783535.439         570.446
       437.948
  -9286843.792 8  -7309087.328 9  18284558.362    18284561.998        2765.850
      2160.862
  -7355550.651 7  -5858898.665 7  17303872.759    17303876.297        1472.840
      1143.206
 88  3 25  4  9 29.0800000  0  3G 6G 9G11
   1053796.617 8 -10794449.636 7  16780261.610    16780264.819         565.119
       426.496
  -9369792.254 9  -7373722.462 8  18268774.041    18268777.102        2760.706
      2147.490
  -7398954.544 8  -5892719.868 7  17295611.257    17295616.966        1448.877
      1116.250
 88  3 25  4  9 59.0800000  0  3G 6G 9G11
   1037044.786 9 -10807503.010 7  16777073.912    16777077.908         553.093
       436.978
  -9452569.080 8  -7438223.839 9  18253020.854    18253024.359        2760.427
      2151.026
  -7441825.430 7  -5926125.740 7  17287453.264    17287460.391        1414.483
      1114.293
 88  3 25  4 10 29.0800000  0  4G 6G 9G11G13
   1020719.806 8 -10820223.764 8  16773968.799    16773970.986         525.159
       429.453
  -9535173.504 8  -7502590.871 7  18237301.686    18237305.824        2738.442
      2147.036
  -7484164.470 7  -5959117.166 7  17279398.699    17279403.334        1385.879
      1074.562
 -19824561.653 1                                  25122864.000 1      3728.259

 88  3 25  4 10 59.0800000  0  4G 6G 9G11G13
   1004822.000 8 -10832611.673 8  16770941.778    16770945.030         522.185
       407.022
  -9617604.817 8  -7566823.035 8  18221613.775    18221618.957        2743.330
      2142.736
  -7525972.501 8  -5991694.837 8  17271440.930    17271447.429        1399.284
      1069.001
 -19935943.878 8  25143288.455 8  20276090.170    20276095.676        3705.787
      2890.951
 88  3 25  4 11 29.0800000  0  4G 6G 9G11G13
    989355.009 8 -10844663.867 7  16767998.721    16768003.580         510.239
       387.473
  -9699858.671 7  -7630916.897 9  18205963.876    18205966.281        2737.182
      2136.100
  -7567247.382 9  -6023857.068 7  17263587.649    17263593.582        1375.927
      1051.236
 -20047108.019 8  25056667.149 8  20254935.399    20254942.836        3716.417
      2883.028
 88  3 25  4 11 59.0800000  0  4G 6G 9G11G13
    974324.320 8 -10856376.087 7  16765139.501    16765141.106         506.005
       388.442
  -9781929.199 9  -7694867.915 7  18190348.119    18190349.563        2733.992
      2121.697
  -7607985.152 8  -6055600.758 7  17255835.152    17255839.457        1349.445
      1032.650
 -20158056.996 8  24970213.510 7  20233823.554    20233829.817        3706.154
      2879.716
 88  3 25  4 12 29.0800000  0  4G 6G 9G11G13
    959731.024 7 -10867747.493 8  16762362.195    16762364.525         462.903
       369.807
  -9863814.561 8  -7758674.686 8  18174765.421    18174767.138        2731.066
      2131.819
  -7648186.224 8  -6086926.238 7  17248185.227    17248190.484        1336.558
      1049.421
 -20268789.900 7  24883928.210 7  20212751.113    20212757.636        3709.184
      2879.325
 88  3 25  4 12 59.0800000  0  4G 6G 9G11G13
    945572.880 8 -10878779.806 8  16759667.265    16759671.088         481.850
       376.220
  -9945516.686 8  -7822338.677 8  18159217.268    18159220.792        2730.093
      2129.930
  -7687854.186 8  -6117836.343 8  17240637.544    17240642.097        1311.622
      1037.155
 -20379308.111 9  24797810.180 7  20191720.925    20191725.664        3698.985
      2852.549
 88  3 25  4 13 29.0800000  0  4G 6G 9G11G13
    931853.901 8 -10889469.936 7  16757057.283    16757060.127         454.283
       356.503
 -10027030.749 9  -7885856.089 8  18143704.893    18143709.157        2723.944
      2102.272
  -7726986.825 8  -6148329.269 8  17233189.427    17233196.650        1309.389
      1004.558
 -20489607.409 8  24711862.730 7  20170731.794    20170736.039        3661.131
      2867.599
 88  3 25  4 13 59.0800000  0  4G 6G 9G11G13
    918577.271 9 -10899815.366 8  16754530.181    16754533.800         435.815
       358.225
 -10108353.040 8  -7949224.110 8  18128228.897    18128233.735        2704.248
      2114.812
  -7765581.822 8  -6178403.277 7  17225845.578    17225851.274        1324.955
       986.873
 -20599684.194 8  24626088.660 7  20149784.568    20149790.585        3659.392
      2855.669
 88  3 25  4 14 29.0800000  0  4G 6G 9G11G13
    905744.033 9 -10909815.279 7  16752088.949    16752091.715         438.821
       340.031
 -10189481.904 7  -8012441.351 9  18112788.965    18112796.177        2722.142
      2101.601
  -7803639.688 8  -6208058.749 7  17218604.926    17218610.193        1261.934
       987.923
 -20709536.834 9  24540489.271 7  20128880.386    20128885.774        3644.584
      2849.088
 88  3 25  4 14 59.0800000  0  4G 6G 9G11G13
    893354.882 8 -10919469.184 8  16749730.756    16749733.566         407.282
       325.142
 -10270416.063 7  -8075506.868 8  18097388.231    18097394.263        2708.538
      2109.536
  -7841161.661 8  -6237296.619 7  17211463.809    17211468.490        1246.201
       955.518
 -20819164.214 8  24455065.361 8  20108017.343    20108024.579        3650.206
      2853.426
 88  3 25  4 15 29.0800000  0  4G 6G 9G11G13
    881412.777 8 -10928774.711 8  16747458.944    16747461.171         408.383
       303.798
 -10351151.739 8  -8138417.748 8  18082025.012    18082031.063        2674.814
      2093.237
  -7878146.404 8  -6266115.890 7  17204425.221    17204429.822        1239.502
       956.637
 -20928562.633 9  24369819.903 8  20087200.766    20087206.437        3639.783
      2819.803
 88  3 25  4 15 59.0800000  0  4G 6G 9G11G13
    869918.924 8 -10937730.966 8  16745270.672    16745275.006         368.758
       292.433
 -10431687.104 9  -8201172.541 7  18066702.514    18066703.933        2677.813
      2078.107
  -7914594.135 8  -6294516.701 7  17197490.266    17197493.161        1222.620
       942.513
 -21037731.145 8  24284753.585 8  20066426.371    20066431.715        3637.479
      2834.834
 88  3 25  4 16 29.0800000  0  4G 6G 9G11G13
    858875.850 7 -10946335.962 7  16743170.340    16743174.421         380.273
       292.918
 -10512019.043 9  -8263768.865 9  18051416.080    18051417.160        2678.746
      2087.136
  -7950503.497 8  -6322498.020 6  17190655.924    17190661.362        1179.511
       933.789
 -21146666.230 8  24199869.162 8  20045697.247    20045702.704        3629.082
      2811.607
 88  3 25  4 16 59.0800000  0  4G 6G 9G11G13
    848286.336 9 -10954587.518 9  16741153.025    16741158.246         347.929
       285.076
 -10592143.701 8  -8326203.669 8  18036168.501    18036171.166        2654.855
      2071.421
  -7985873.249 7  -6350058.844 6  17183925.904    17183929.579        1174.806
       928.868
 -21255364.463 8  24115169.302 8  20025011.597    20025018.361        3608.101
      2832.286
 88  3 25  4 17 29.0800000  0  4G 6G 9G11G13
    838150.598 8 -10962485.505 9  16739225.160    16739230.258         323.520
       259.450
 -10672060.268 8  -8388476.307 8  18020959.370    18020964.736        2656.848
      2076.976
  -8020705.029 8  -6377200.473 6  17177296.665    17177303.135        1170.006
       876.647
 -21363825.370 8  24030654.373 8  20004372.312    20004380.775        3607.455
      2806.381
 88  3 25  4 17 59.0800000  0  4G 6G 9G11G13
    828472.324 9 -10970027.018 9  16737383.644    16737387.956         305.139
       245.084
 -10751764.531 8  -8450583.497 8  18005791.850    18005796.866        2653.746
      2052.519
  -8054996.680 8  -6403921.224 7  17170771.968    17170776.220        1111.418
       882.513
 -21472044.371 8  23946327.959 8  19983779.799    19983785.025        3617.583
      2805.157
 88  3 25  4 18 29.0800000  0  4G 6G 9G11G13
    819253.329 8 -10977210.654 8  16735629.584    16735634.008         299.142
       227.536
 -10831253.652 7  -8512523.022 9  17990663.959    17990670.027        2633.180
      2068.420
  -8088748.009 8  -6430220.937 6  17164349.353    17164354.243        1132.757
       873.372
 -21580019.216 8  23862191.756 8  19963232.976    19963237.889        3600.613
      2799.241
 88  3 25  4 18 59.0800000  0  4G 6G 9G11G13
    810493.747 8 -10984036.304 8  16733962.444    16733965.885         280.227
       236.403
 -10910526.788 8  -8574294.241 9  17975579.936    17975584.543        2641.864
      2052.804
  -8121960.273 8  -6456100.608 7  17158028.826    17158033.203        1102.351
       875.808
 -21687749.967 8  23778245.749 9  19942730.883    19942738.362        3591.164
      2808.599
 88  3 25  4 19 29.0800000  0  4G 6G 9G11G13
    802195.599 8 -10990502.396 7  16732383.550    16732387.187         283.791
       209.728
 -10989580.832 8  -8635894.733 9  17960537.585    17960541.329        2656.625
      2040.557
  -8154633.091 9  -6481559.939 7  17151812.088    17151816.106        1091.594
       834.741
 -21795233.866 8  23694492.117 8  19922279.054    19922284.210        3595.023
      2784.651
 88  3 25  4 19 59.0800000  0  4G 6G 9G11G13
    794360.623 8 -10996607.570 7  16730892.508    16730896.007         237.014
       208.709
 -11068413.516 8  -8697322.779 9  17945537.897    17945540.032        2608.946
      2050.505
  -8186766.491 8  -6506598.927 7  17145696.716    17145701.721        1053.389
       824.097
 -21902468.526 8  23610932.700 8  19901873.302    19901877.800        3573.875
      2779.245
 88  3 25  4 20 29.0800000  0  4G 6G 9G11G13
    786992.225 8 -11002349.188 7  16729489.769    16729493.115         246.902
       194.206
 -11147020.632 9  -8758575.083 8  17930579.152    17930581.305        2608.420
      2046.317
  -8218358.636 8  -6531216.178 7  17139685.291    17139690.093        1049.465
       820.164
 -22009450.121 9  23527570.452 8  19881514.763    19881519.550        3568.102
      2777.350
 88  3 25  4 20 59.0800000  0  4G 6G 9G11G13
    780091.547 8 -11007726.345 7  16728177.287    16728180.712         221.001
       182.965
 -11225399.791 8  -8819649.740 9  17915663.052    17915665.182        2614.512
      2031.864
  -8249410.166 8  -6555412.142 6  17133775.972    17133780.935        1037.870
       792.953
 -22116176.600 9  23444407.009 7  19861204.835    19861211.103        3577.017
      2755.378
 88  3 25  4 21 29.0800000  0  4G 6G 9G11G13
    773659.605 9 -11012738.240 8  16726953.451    16726957.490         201.783
       156.389
 -11303549.684 8  -8880545.756 8  17900790.951    17900795.065        2596.219
      2023.705
  -8279921.560 9  -6579187.238 7  17127970.707    17127974.690        1019.226
       782.278
 -22222646.149 8  23361443.775 7  19840945.286    19840950.488        3533.940
      2753.477
 88  3 25  4 21 59.0800000  0  4G 6G 9G11G13
    767697.850 8 -11017383.769 8  16725818.278    16725824.100         212.875
       131.266
 -11381467.222 8  -8941260.690 8  17885963.060    17885967.325        2593.755
      2025.805
  -8309893.133 7  -6602541.688 7  17122266.307    17122271.314         992.903
       768.024
 -22328857.300 9  23278681.866 8  19820732.706    19820738.036        3536.906
      2748.145
 88  3 25  4 22 29.0800000  0  4G 6G 9G11G13
    762208.378 9 -11021661.285 8  16724773.730    16724777.532         175.173
       133.174
 -11459149.640 8  -9001792.408 9  17871179.972    17871185.102        2565.000
      2025.762
  -8339324.267 7  -6625475.034 7  17116666.570    17116671.177         978.166
       756.242
 -22434807.596 8  23196123.240 8  19800571.421    19800577.350        3556.132
      2754.788
 88  3 25  4 22 59.0800000  0  4G 6G 9G11G13
    757193.230 8 -11025569.192 7  16723820.599    16723822.655         170.324
       125.525
 -11536593.852 8  -9062138.505 8  17856444.989    17856447.358        2580.358
      2011.607
  -8368214.623 8  -6647986.985 7  17111167.934    17111172.641         950.368
       753.471
 -22540494.653 7  23113769.726 8  19780459.467    19780465.644        3506.452
      2747.120
 88  3 25  4 23 29.0800000  0  4G 6G 9G11G13
    752655.612 8 -11029105.007 8  16722957.664    16722961.146         150.053
       121.486
 -11613795.825 9  -9122295.872 8  17841755.247    17841757.528        2570.175
      1990.741
  -8396562.654 8  -6670076.349 7  17105774.539    17105778.274         928.223
       726.683
 -22645914.264 8  23031624.625 8  19760398.718    19760403.932        3519.474
      2732.412
 88  3 25  4 23 59.0800000  0  4G 6G 9G11G13
    748596.055 9 -11032268.294 8  16722184.270    16722187.145         123.323
       109.711
 -11690753.866 9  -9182263.169 8  17827109.800    17827112.200        2570.183
      1999.440
  -8424369.630 8  -6691744.099 7  17100481.615    17100486.696         902.562
       711.273
 -22751065.144 8  22949688.908 8  19740388.389    19740393.706        3498.087
      2735.662
 88  3 25  4 24 29.0800000  0  4G 6G 9G11G13
    745013.271 8 -11035060.073 8  16721502.666    16721506.190         115.556
        96.115
 -11767468.034 9  -9242040.432 8  17812510.580    17812513.034        2559.888
      1993.171
  -8451638.255 8  -6712992.365 7  17095293.416    17095298.097         916.788
       698.436
 -22855947.561 8  22867962.393 7  19720432.069    19720437.314        3487.393
      2720.749
 88  3 25  4 24 59.0800000  0  4G 6G 9G11G13
    741912.033 9 -11037476.633 8  16720911.826    16720917.289         102.781
        72.875
 -11843933.100 8  -9301623.584 8  17797958.131    17797961.854        2535.893
      2007.643
  -8478365.959 7  -6733819.129 7  17090207.746    17090212.336         883.646
       693.452
 -22960557.292 8  22786448.358 8  19700523.863    19700530.237        3463.478
      2705.817
 88  3 25  4 25 29.0800000  0  4G 6G 9G11G13
    739294.489 8 -11039516.283 9  16720414.478    16720417.880          84.050
        61.989
 -11920145.391 8  -9361009.760 8  17783455.758    17783459.440        2559.744
      1970.695
  -8504552.148 8  -6754223.932 7  17085225.059    17085229.827         848.065
       676.768
 -23064891.174 8  22705149.263 7  19680670.846    19680675.622        3451.293
      2711.963
 88  3 25  4 25 59.0800000  0  4G 6G 9G11G13
    737158.780 8 -11041180.455 8  16720007.979    16720012.441          56.897
        60.603
 -11996105.695 8  -9420199.586 7  17769001.462    17769004.319        2512.624
      1957.516
  -8530200.106 8  -6774209.328 7  17080343.128    17080346.925         853.089
       652.547
 -23168950.801 8  22624063.884 7  19660868.300    19660873.357        3458.438
      2688.947
 88  3 25  4 26 29.0800000  0  4G 6G 9G11G13
    735507.947 7 -11042466.823 8  16719694.460    16719697.270          35.223
        40.222
 -12071809.967 8  -9479189.902 8  17754595.933    17754598.408        2511.468
      1965.755
  -8555308.676 7  -6793774.445 7  17075564.975    17075569.122         839.468
       637.037
 -23272732.185 9  22543195.309 7  19641119.807    19641124.323        3448.120
      2698.914
 88  3 25  4 26 59.0800000  0  4G 6G 9G11G13
    734345.881 8 -11043372.332 8  16719471.910    16719476.763          47.870
        24.402
 -12147253.293 8  -9537976.894 8  17740240.906    17740243.304        2526.675
      1954.415
  -8579875.929 7  -6812917.719 7  17070890.236    17070895.077         832.523
       635.962
 -23376231.142 8  22462546.793 9  19621423.381    19621430.243        3431.047
      2688.798
 88  3 25  4 27 29.0800000  0  4G 6G 9G11G13
    733675.483 8 -11043894.725 8  16719343.687    16719349.545           2.679
        12.763
 -12222431.248 9  -9596557.112 8  17725935.190    17725937.864        2500.519
      1944.902
  -8603900.620 8  -6831638.256 7  17066317.466    17066324.316         779.150
       612.163
 -23479443.758 9  22382121.408 7  19601783.270    19601787.069        3439.850
      2683.429
 88  3 25  4 27 59.0800000  0  4G 6G 9G11G13
    733494.462 8 -11044035.775 8  16719310.583    16719314.484          10.159
        -0.360
 -12297345.022 9  -9654931.471 8  17711677.865    17711682.999        2514.283
      1939.869
  -8627386.802 8  -6849939.160 7  17061849.173    17061855.065         780.626
       630.090
 -23582371.772 8  22301917.787 7  19582196.127    19582201.790        3421.844
      2688.363
 88  3 25  4 28 29.0800000  0  4G 6G 9G11G13
    733801.862 8 -11043796.244 8  16719368.852    16719373.262         -12.113
       -17.573
 -12371994.729 8  -9713100.027 8  17697471.449    17697477.003        2460.209
      1934.227
  -8650336.956 7  -6867822.390 7  17057482.735    17057486.947         752.038
       595.697
 -23685015.387 9  22221935.774 8  19562664.284    19562669.928        3427.115
      2660.699
 88  3 25  4 28 59.0800000  0  4G 6G 9G11G13
    734603.345 8 -11043171.716 8  16719522.602    16719525.512         -42.440
       -33.641
 -12446373.283 7  -9771057.291 8  17683317.455    17683321.506        2454.300
      1917.512
  -8672747.758 8  -6885285.334 6  17053217.975    17053222.499         742.405
       574.315
 -23787368.567 9  22142180.074 7  19543186.931    19543193.119        3411.055
      2651.099
 88  3 25  4 29 29.0800000  0  4G 6G 9G11G13
    735902.382 7 -11042159.484 8  16719766.642    16719772.481         -40.518
       -41.781
 -12520475.743 8  -9828799.451 8  17669215.913    17669221.217        2485.926
      1922.974
  -8694617.110 8  -6902326.380 7  17049056.347    17049060.593         702.461
       568.549
 -23889427.441 8  22062653.720 8  19523766.766    19523772.123        3394.612
      2643.710
 88  3 25  4 29 59.0800000  0  4G 6G 9G11G13
    737699.236 8 -11040759.348 8  16720111.450    16720114.936         -57.152
       -61.200
 -12594300.906 8  -9886325.525 8  17655169.279    17655171.575        2471.859
      1925.701
  -8715946.381 8  -6918946.569 7  17044996.894    17045001.667         723.697
       542.929
 -23991191.070 8  21983357.429 8  19504400.475    19504405.964        3387.650
      2653.721
 88  3 25  4 30 29.0800000  0  4G 6G 9G11G13
    739992.520 8 -11038972.382 9  16720547.576    16720550.342         -93.356
       -65.984
 -12667848.625 8  -9943635.421 9  17641174.510    17641176.415        2447.083
      1896.441
  -8736738.602 8  -6935148.285 6  17041040.746    17041046.074         682.844
       520.156
 -24092659.802 9  21904290.934 7  19485092.890    19485096.375        3375.378
      2634.924
 88  3 25  4 30 59.0800000  0  4G 6G 9G11G13
    742783.827 8 -11036797.357 7  16721078.445    16721081.977        -118.650
       -88.497
 -12741115.782 9 -10000726.728 8  17627231.585    17627235.304        2432.474
      1903.773
  -8756994.466 8  -6950932.049 7  17037184.839    17037190.036         654.511
       508.691
 -24193831.560 8  21825455.831 7  19465839.853    19465846.385        3369.915
      2632.153
 88  3 25  4 31 29.0800000  0  4G 6G 9G11G13
    746077.753 7 -11034230.672 8  16721706.089    16721708.497        -124.217
       -92.592
 -12814097.059 8 -10057595.222 9  17613341.692    17613346.805        2426.054
      1879.912
  -8776710.882 8  -6966295.475 6  17033434.929    17033438.505         657.924
       506.802
 -24294700.818 8  21746856.431 8  19446644.759    19446650.289        3353.344
      2604.290
 88  3 25  4 31 59.0800000  0  4G 6G 9G11G13
    749874.798 8 -11031271.937 8  16722426.890    16722430.341        -129.448
      -107.480
 -12886790.377 8 -10114239.330 9  17599510.170    17599514.728        2427.418
      1892.371
  -8795889.255 8  -6981239.648 7  17029785.815    17029789.765         630.803
       497.879
 -24395267.141 9  21668493.107 8  19427507.201    19427512.103        3348.313
      2614.481
 88  3 25  4 32 29.0800000  0  4G 6G 9G11G13
    754174.940 8 -11027921.206 9  16723246.387    16723248.851        -137.877
      -119.106
 -12959194.129 8 -10170657.793 9  17585730.880    17585736.584        2393.120
      1875.146
  -8814531.503 7  -6995766.064 7  17026237.327    17026241.016         611.203
       479.008
 -24495529.181 8  21590366.853 8  19408428.304    19408434.395        3312.906
      2600.288
 88  3 25  4 32 59.0800000  0  4G 6G 9G11G13
    758980.388 9 -11024176.684 8  16724160.202    16724163.494        -167.342
      -142.563
 -13031304.658 9 -10226847.778 9  17572010.656    17572013.625        2401.374
      1870.088
  -8832636.698 9  -7009873.978 7  17022791.674    17022794.771         592.566
       482.165
 -24595483.972 8  21512480.037 8  19389408.081    19389412.912        3326.965
      2592.869
 88  3 25  4 33 29.0800000  0  4G 6G 9G11G13
    764291.935 8 -11020037.842 8  16725171.877    16725175.694        -185.667
      -141.214
 -13103120.216 8 -10282807.947 8  17558345.405    17558346.828        2404.141
      1862.290
  -8850206.544 9  -7023564.762 7  17019447.507    17019454.923         589.002
       435.686
 -24695130.722 9  21434833.246 8  19370444.467    19370450.154        3325.059
      2588.942
 88  3 25  4 33 59.0800000  0  4G 6G 9G11G13
    770110.446 8 -11015503.948 8  16726278.409    16726282.319        -196.313
      -158.849
 -13174638.502 9 -10338536.476 9  17544736.251    17544736.742        2379.069
      1855.747
  -8867241.887 8  -7036839.040 7  17016206.670    17016210.008         564.808
       428.360
 -24794467.459 8  21357428.028 9  19351541.696    19351548.114        3322.061
      2590.949
 88  3 25  4 34 29.0800000  0  4G 6G 9G11G13
    776438.094 8 -11010573.320 8  16727482.034    16727487.182        -216.950
      -171.289
 -13245855.355 8 -10394030.139 9  17531182.543    17531184.585        2372.323
      1842.797
  -8883742.090 8  -7049696.327 7  17013065.113    17013071.426         553.883
       448.312
 -24893491.543 8  21280266.430 8  19332698.763    19332702.348        3286.041
      2566.746
 88  3 25  4 34 59.0800000  0  4G 6G 9G11G13
    783278.440 8 -11005243.177 9  16728784.830    16728790.104        -221.288
      -186.351
 -13316766.174 9 -10449285.327 8  17517687.281    17517691.823        2352.563
      1835.272
  -8899705.613 8  -7062135.417 8  17010029.871    17010034.374         535.542
       408.444
 -24992198.917 8  21203351.622 8  19313915.075    19313920.334        3278.362
      2557.910
 88  3 25  4 35 29.0800000  0  4G 6G 9G11G13
    790631.134 8 -10999513.818 9  16730182.217    16730187.888        -243.465
      -188.576
 -13387369.836 7 -10504301.122 9  17504250.771    17504257.426        2348.631
      1835.794
  -8915134.451 8  -7074157.878 8  17007093.768    17007098.317         521.395
       400.298
 -25090588.117 8  21126684.738 8  19295192.541    19295197.861        3257.947
      2559.352
 88  3 25  4 35 59.0800000  0  4G 6G 9G11G13
    798497.513 7 -10993384.166 8  16731679.498    16731684.295        -276.439
      -216.252
 -13457663.192 7 -10559075.113 8  17490874.984    17490880.621        2347.196
      1825.131
  -8930029.184 8  -7085764.139 7  17004258.361    17004262.960         502.145
       399.410
 -25188657.951 9  21050266.728 8  19276530.743    19276535.329        3268.330
      2543.072
 88  3 25  4 36 29.0800000  0  4G 6G 9G11G13
    806878.545 7 -10986853.495 8  16733275.491    16733279.044        -274.477
      -209.150
 -13527643.833 8 -10613605.456 8  17477558.744    17477563.065        2320.713
      1830.233
  -8944391.031 8  -7096955.176 7  17001526.394    17001529.403         459.714
       367.409
 -25286406.856 9  20974098.761 8  19257929.187    19257934.346        3251.624
      2538.610
 88  3 25  4 36 59.0800000  0  4G 6G 9G11G13
    815773.864 9 -10979922.086 8  16734966.677    16734973.050        -314.070
      -234.024
 -13597310.548 9 -10667891.179 8  17464303.818    17464305.245        2314.908
      1799.885
  -8958221.825 8  -7107732.404 7  16998893.732    16998899.038         430.073
       359.902
 -25383834.463 9  20898181.164 8  19239389.469    19239394.056        3247.453
      2531.738
 88  3 25  4 37 29.0800000  0  4G 6G 9G11G13
    825185.214 9 -10972588.573 9  16736758.648    16736762.591        -303.775
      -255.896
 -13666660.193 8 -10721929.868 8  17451105.305    17451109.241        2304.677
      1800.487
  -8971521.800 7  -7118096.008 7  16996363.776    16996368.906         431.899
       325.938
 -25480938.286 9  20822515.864 8  19220911.176    19220916.019        3247.485
      2526.015
 88  3 25  4 37 59.0800000  0  4G 6G 9G11G13
    835116.331 8 -10964850.047 8  16738647.905    16738653.455        -325.657
      -251.099
 -13735687.086 7 -10775717.049 7  17437969.999    17437972.700        2308.592
      1783.139
  -8984288.682 8  -7128044.227 7  16993933.632    16993937.103         416.883
       324.739
 -25577713.396 9  20747106.714 7  19202495.125    19202499.610        3235.164
      2518.099
 88  3 25  4 38 29.0800000  0  4G 6G 9G11G13
    845568.169 8 -10956705.753 8  16740638.036    16740641.748        -368.894
      -271.754
 -13804388.976 8 -10829250.984 8  17424895.126    17424898.226        2293.130
      1770.469
  -8996523.946 8  -7137578.182 7  16991605.299    16991609.757         405.544
       316.170
 -25674157.918 8  20671955.161 7  19184142.008    19184147.737        3233.809
      2509.350
 88  3 25  4 38 59.0800000  0  4G 6G 9G11G13
    856538.923 8 -10948157.122 8  16742725.249    16742728.519        -394.045
      -271.145
 -13872765.610 7 -10882531.468 8  17411884.039    17411887.901        2281.774
      1770.208
  -9008231.318 8  -7146700.800 7  16989376.682    16989380.861         378.599
       320.706
 -25770273.046 8  20597060.274 8  19165851.959    19165857.619        3197.972
      2493.306
 88  3 25  4 39 29.0800000  0  4G 6G 9G11G13
    868030.347 8 -10939202.771 8  16744911.226    16744915.537        -401.493
      -304.805
 -13940814.450 8 -10935556.507 8  17398936.121    17398939.163        2266.009
      1777.012
  -9019410.654 8  -7155411.939 7  16987249.655    16987253.931         368.144
       281.056
 -25866056.338 9  20522423.956 7  19147624.994    19147630.223        3189.814
      2476.193
 88  3 25  4 39 59.0800000  0  4G 6G 9G11G13
    880046.072 8 -10929839.883 8  16747198.473    16747202.411        -397.171
      -319.842
 -14008529.077 8 -10988321.134 8  17386052.027    17386053.684        2242.971
      1756.332
  -9030060.066 8  -7163710.167 7  16985223.422    16985226.523         345.896
       279.061
 -25961504.031 9  20448049.132 8  19129461.990    19129467.948        3188.642
      2467.966
 88  3 25  4 40 29.0800000  0  4G 6G 9G11G13
    892584.783 7 -10920069.464 8  16749585.211    16749588.572        -434.212
      -325.006
 -14075909.556 9 -11040825.408 8  17373228.704    17373231.442        2231.488
      1743.085
  -9040182.643 9  -7171597.876 8  16983297.494    16983300.974         331.135
       257.375
 -26056616.064 8  20373935.881 8  19111363.690    19111367.235        3161.537
      2484.178
 88  3 25  4 40 59.0800000  0  4G 6G 9G11G13
    905647.231 8 -10909890.938 8  16752070.183    16752072.677        -432.681
      -331.188
 -14142953.628 9 -11093067.529 9  17360470.943    17360473.586        2227.924
      1747.179
  -9049779.452 8  -7179075.893 8  16981471.432    16981474.689         292.627
       258.257
 -26151390.791 7  20300085.476 7  19093329.041    19093333.083        3155.652
      2451.997
 88  3 25  4 41 29.0800000  0  4G 6G 9G11G13
    919236.496 8 -10899301.891 8  16754655.828    16754659.165        -440.312
      -382.421
 -14209656.137 8 -11145043.503 8  17347776.241    17347780.109        2219.535
      1732.652
  -9058849.836 8  -7186143.713 8  16979743.795    16979748.742         275.992
       238.429
 -26245824.222 8  20226501.032 8  19075357.294    19075362.356        3125.366
      2454.035
 88  3 25  4 41 59.0800000  0  4G 6G 9G11G13
    933354.446 9 -10888300.912 8  16757342.211    16757345.920        -472.640
      -368.540
 -14276013.714 8 -11196750.674 8  17335148.069    17335152.341        2222.318
      1719.634
  -9067393.550 8  -7192801.160 7  16978118.843    16978123.694         275.227
       209.914
 -26339914.253 8  20153184.140 7  19057453.011    19057458.657        3130.541
      2445.609
 88  3 25  4 42 29.0800000  0  4G 6G 9G11G13
    948000.937 8 -10876888.084 8  16760129.669    16760132.965        -507.217
      -382.173
 -14342024.435 8 -11248187.610 8  17322588.440    17322591.325        2212.589
      1709.922
  -9075412.413 8  -7199049.595 7  16976593.336    16976597.435         258.002
       201.532
 -26433660.022 9  20080135.507 8  19039614.464    19039619.822        3128.428
      2440.321
 88  3 25  4 42 59.0800000  0  4G 6G 9G11G13
    963175.653 9 -10865063.630 8  16763017.641    16763019.472        -522.033
      -390.884
 -14407686.987 8 -11299353.216 9  17310092.968    17310097.562        2188.578
      1712.376
  -9082908.538 8  -7204890.718 8  16975166.860    16975170.479         234.279
       197.828
 -26527060.769 8  20007355.729 9  19021840.928    19021845.800        3113.133
      2421.717
 88  3 25  4 43 29.0800000  0  4G 6G 9G11G13
    978880.801 7 -10852825.879 8  16766005.996    16766009.891        -528.301
      -423.848
 -14472997.199 8 -11350244.290 8  17297665.887    17297667.803        2167.534
      1696.587
  -9089881.717 8  -7210324.357 8  16973839.573    16973843.630         204.271
       179.796
 -26620113.808 9  19934846.889 7  19004133.110    19004137.908        3108.795
      2405.915
 88  3 25  4 43 59.0800000  0  4G 6G 9G11G13
    995117.530 8 -10840173.887 7  16769095.424    16769099.519        -541.873
      -423.097
 -14537952.178 8 -11400858.534 8  17285304.448    17285308.272        2164.440
      1688.105
  -9096332.520 7  -7215350.938 7  16972611.543    16972616.238         185.834
       151.797
 -26712817.055 8  19862610.608 8  18986492.144    18986497.043        3099.329
      2408.873
 88  3 25  4 44 29.0800000  0  4G 6G 9G11G13
   1011885.766 8 -10827107.745 7  16772285.065    16772290.893        -573.611
      -442.005
 -14602550.053 8 -11451194.521 8  17273010.833    17273015.891        2160.987
      1682.736
  -9102263.304 8  -7219972.301 8  16971483.133    16971487.769         188.801
       141.948
 -26805169.504 8  19790647.676 8  18968917.851    18968924.355        3071.905
      2398.154
 88  3 25  4 44 59.0800000  0  4G 6G 9G11G13
   1029187.325 8 -10813626.018 8  16775579.275    16775583.967        -607.112
      -451.195
 -14666787.283 8 -11501249.484 9  17260784.849    17260791.135        2149.296
      1677.573
  -9107673.741 8  -7224188.212 8  16970453.756    16970458.378         152.478
       123.872
 -26897168.278 9  19718960.353 7  18951410.449    18951416.208        3059.641
      2387.497
 88  3 25  4 45 29.0800000  0  4G 6G 9G11G13
   1047024.057 8 -10799727.275 9  16778973.283    16778977.553        -580.222
      -477.610
 -14730659.800 7 -11551020.236 8  17248632.123    17248635.999        2153.435
      1659.913
  -9112563.773 8  -7227998.622 7  16969524.320    16969527.395         149.950
       108.692
 -26988810.889 9  19647550.538 8  18933972.934    18933977.993        3046.188
      2381.949
 88  3 25  4 45 59.0800000  0  4G 6G 9G11G13
   1065397.936 8 -10785409.979 9  16782471.150    16782473.751        -637.893
      -488.522
 -14794164.018 8 -11600504.027 8  17236548.001    17236551.117        2109.265
      1642.577
  -9116933.659 8  -7231403.723 8  16968692.541    16968695.390         135.700
       111.954
 -27080094.730 8  19576420.302 9  18916601.264    18916605.678        3038.820
      2361.679
 88  3 25  4 46 29.0800000  0  4G 6G 9G11G13
   1084305.887 8 -10770676.531 8  16786069.018    16786071.986        -646.194
      -491.597
 -14857300.839 8 -11649701.559 7  17224534.261    17224535.833        2091.889
      1638.556
  -9120788.379 8  -7234407.378 7  16967958.190    16967961.805         118.603
        93.791
 -27171022.003 9  19505567.907 8  18899298.224    18899304.052        3039.298
      2349.593
 88  3 25  4 46 59.0800000  0  4G 6G 9G11G13
   1103748.106 8 -10755526.760 8  16789767.909    16789771.926        -654.663
      -514.110
 -14920068.042 8 -11698611.066 8  17212589.687    17212593.189        2084.600
      1620.698
  -9124128.903 8  -7237010.377 7  16967321.681    16967326.800          87.574
        93.232
 -27261591.834 9  19434994.029 8  18882063.641    18882069.474        3020.463
      2364.643
 88  3 25  4 47 29.0800000  0  4G 6G 9G11G13
   1123728.313 9 -10739957.773 8  16793570.824    16793573.739        -670.404
      -518.876
 -14982460.219 7 -11747228.340 8  17200717.088    17200720.569        2081.825
      1623.786
  -9126953.831 8  -7239211.600 7  16966785.208    16966789.198          89.751
        64.257
 -27351799.080 8  19364702.698 8  18864898.148    18864902.103        3006.221
      2332.692
 88  3 25  4 47 59.0800000  0  4G 6G 9G11G13
   1144247.393 7 -10723968.885 8  16797475.025    16797479.254        -679.918
      -549.392
 -15044474.292 7 -11795550.961 8  17188914.200    17188920.408        2048.229
      1604.200
  -9129264.252 8  -7241011.923 7  16966345.447    16966349.709          78.420
        53.507
 -27441641.646 9  19294695.524 8  18847800.537    18847806.852        2993.470
      2319.786
 88  3 25  4 48 29.0800000  0  4G 6G 9G11G13
   1165305.667 8 -10707559.851 8  16801482.032    16801486.370        -702.916
      -551.082
 -15106107.744 8 -11843576.982 9  17177187.634    17177192.238        2050.837
      1595.911
  -9131061.603 8  -7242412.453 7  16966003.142    16966008.453          56.267
        49.549
 -27531119.011 9  19224972.927 7  18830774.353    18830778.994        2986.620
      2308.781
 88  3 25  4 48 59.0800000  0  4G 6G 9G11G13
   1186904.618 8 -10690729.510 8  16805591.303    16805596.026        -715.970
      -569.680
 -15167357.186 8 -11891303.801 8  17165532.638    17165535.412        2039.250
      1583.570
  -9132345.932 8  -7243413.219 7  16965759.228    16965762.806          19.657
        20.630
 -27620228.719 9  19155536.810 9  18813817.628    18813822.500        2974.252
      2310.179
 88  3 25  4 49 29.0800000  0  4G 6G 9G11G13
   1209043.862 8 -10673478.169 8  16809804.938    16809809.090        -735.890
      -577.267
 -15228220.887 9 -11938730.066 8  17153951.159    17153952.388        2018.326
      1580.246
  -9133119.883 8  -7244016.280 7  16965611.641    16965613.726          11.762
        32.989
 -27708969.937 8  19086387.832 8  18796929.621    18796935.510        2946.405
      2299.821
 88  3 25  4 49 59.0800000  0  4G 6G 9G11G13
   1231723.859 9 -10655805.461 9  16814121.790    16814125.478        -757.755
      -593.715
 -15288696.440 7 -11985853.887 7  17142442.066    17142444.367        1990.670
      1561.002
  -9133384.735 8  -7244222.654 7  16965560.371    16965563.861           3.628
        -3.045
 -27797341.725 8  19017526.734 8  18780113.418    18780119.235        2950.241
      2298.404
 88  3 25  4 50 29.0800000  0  4G 6G 9G11G13
   1254946.573 8 -10637709.846 8  16818539.941    16818543.723        -788.090
      -608.392
 -15348779.633 9 -12032671.971 7  17131008.052    17131012.543        1988.749
      1557.821
  -9133140.515 8  -7244032.339 6  16965606.155    16965611.852          -6.746
       -26.750
 -27885340.849 9  18948956.007 7  18763368.185    18763372.301        2923.718
      2289.276
 88  3 25  4 50 59.0800000  0  4G 6G 9G11G13
   1278713.570 8 -10619190.114 8  16823062.021    16823066.838        -793.704
      -627.866
 -15408466.936 8 -12079181.546 7  17119649.188    17119654.691        1983.565
      1545.859
  -9132387.329 8  -7243445.446 7  16965751.569    16965755.212         -23.166
       -39.812
 -27972964.927 9  18880677.523 8  18746694.075    18746699.047        2921.653
      2271.387
 88  3 25  4 51 29.0800000  0  4G 6G 9G11G13
   1303023.440 8 -10600247.368 7  16827688.206    16827692.393        -805.617
      -642.872
 -15467757.359 8 -12125381.851 8  17108367.077    17108371.791        1981.955
      1534.780
  -9131128.186 8  -7242464.276 7  16965990.663    16965995.527         -62.017
       -33.182
 -28060213.412 9  18812691.720 8  18730090.394    18730095.496        2900.002
      2267.857
 88  3 25  4 51 59.0800000  0  4G 6G 9G11G13
   1327876.112 8 -10580881.663 9  16832417.559    16832420.812        -832.794
      -638.547
 -15526648.843 9 -12171271.308 8  17097161.838    17097166.470        1952.441
      1517.692
  -9129365.078 8  -7241090.405 7  16966325.391    16966329.129         -55.964
       -64.971
 -28147086.263 8  18744998.607 8  18713559.657    18713563.113        2889.372
      2248.812
 88  3 25  4 52 29.0800000  0  4G 6G 9G11G13
   1353272.238 9 -10561092.483 8  16837249.790    16837255.159        -847.156
      -659.705
 -15585138.595 8 -12216847.713 9  17086031.360    17086035.011        1945.520
      1532.965
  -9127099.261 7  -7239324.826 7  16966757.346    16966760.616         -92.311
       -58.807
 -28233582.273 9  18677599.131 9  18697099.243    18697104.861        2879.285
      2250.421
 88  3 25  4 52 59.0800000  0  4G 6G 9G11G13
   1379215.304 8 -10540877.122 8  16842185.887    16842191.008        -886.015
      -682.118
 -15643221.150 9 -12262106.851 8  17074977.320    17074981.442        1939.714
      1516.027
  -9124329.243 8  -7237166.371 7  16967283.553    16967288.254         -83.922
       -86.968
 -28319696.470 9  18610497.176 8  18680712.806    18680717.595        2860.737
      2250.552
 88  3 25  4 53 29.0800000  0  4G 6G 9G11G13
   1405705.272 8 -10520235.594 8  16847227.004    16847232.104        -885.114
      -683.137
 -15700894.080 8 -12307046.787 8  17064002.209    17064005.431        1900.329
      1497.907
  -9121056.732 9  -7234616.348 7  16967906.311    16967911.008        -117.598
       -83.986
 -28405428.213 8  18543693.232 8  18664398.774    18664404.361        2858.831
      2220.775
 88  3 25  4 53 59.0800000  0  4G 6G 9G11G13
   1432739.544 8 -10499169.937 8  16852372.950    16852376.915        -929.642
      -698.765
 -15758157.623 7 -12351667.738 7  17053105.167    17053110.302        1926.118
      1482.559
  -9117286.072 8  -7231678.165 6  16968623.895    16968628.105        -129.280
      -105.398
 -28490778.664 9  18477186.417 8  18648157.380    18648161.563        2857.977
      2217.519
 88  3 25  4 54 29.0800000  0  4G 6G 9G11G13
   1460319.466 9 -10477679.108 8  16857619.540    16857623.943        -923.877
      -722.489
 -15815008.329 7 -12395966.982 8  17042288.084    17042290.905        1870.959
      1475.817
  -9113017.731 7  -7228352.190 7  16969436.245    16969439.757        -133.028
      -115.850
 -28575745.748 8  18410978.332 8  18631988.553    18631993.697        2818.672
      2196.368
 88  3 25  4 54 59.0800000  0  4G 6G 9G11G13
   1488449.403 7 -10455759.680 8  16862972.185    16862977.140        -944.299
      -731.027
 -15871439.511 8 -12439939.321 8  17031550.868    17031554.101        1880.824
      1461.849
  -9108249.137 8  -7224636.393 8  16970343.071    16970347.949        -167.772
      -135.255
 -28660323.985 8  18345073.240 7  18615894.170    18615898.814        2814.270
      2199.847
 88  3 25  4 55 29.0800000  0  4G 6G 9G11G13
   1517128.862 9 -10433412.065 8  16868429.863    16868433.752        -965.184
      -748.929
 -15927449.434 8 -12483583.400 9  17020891.207    17020896.450        1870.337
      1456.815
  -9102982.773 8  -7220532.711 7  16971345.515    16971350.166        -185.555
      -139.170
 -28744512.934 8  18279471.479 7  18599873.423    18599879.151        2815.737
      2176.409
 88  3 25  4 55 59.0800000  0  4G 6G 9G11G13
   1546354.887 9 -10410638.542 8  16873991.949    16873997.188        -978.661
      -775.754
 -15983038.649 9 -12526899.657 8  17010313.242    17010317.524        1851.542
      1434.614
  -9097223.332 8  -7216044.829 7  16972441.816    16972446.177        -166.186
      -169.773
 -28828314.774 8  18214171.356 7  18583925.734    18583930.766        2771.934
      2177.503
 88  3 25  4 56 29.0800000  0  4G 6G 9G11G13
   1576127.478 8 -10387439.123 8  16879658.453    16879659.837        -997.345
      -785.696
 -16038204.940 8 -12569886.345 9  16999815.204    16999819.497        1825.593
      1427.126
  -9090972.343 8  -7211173.921 8  16973632.266    16973635.915        -197.397
      -160.328
 -28911728.245 9  18149173.869 8  18568052.915    18568056.257        2771.320
      2161.428
 88  3 25  4 56 59.0800000  0  4G 6G 9G11G13
   1606450.055 8 -10363811.157 7  16885428.971    16885431.571       -1032.583
      -801.497
 -16092942.366 7 -12612538.856 8  16989399.448    16989401.853        1826.758
      1413.760
  -9084228.208 8  -7205918.742 7  16974914.249    16974919.153        -229.031
      -174.446
 -28994748.710 9  18084482.609 8  18552254.709    18552260.380        2771.870
      2139.052
 88  3 25  4 57 29.0800000  0  4G 6G 9G11G13
   1637324.406 9 -10339753.229 7  16891304.268    16891306.147       -1055.797
      -816.007
 -16147247.238 8 -12654854.343 8  16979066.781    16979066.601        1805.929
      1423.740
  -9076991.374 9  -7200279.650 8  16976292.404    16976296.078        -257.133
      -190.148
 -29077373.492 9  18020099.694 8  18536531.481    18536536.669        2743.490
      2145.029
 88  3 25  4 57 59.0800000  0  4G 6G 9G11G13
   1668747.007 9 -10315268.105 8  16897284.042    16897285.234       -1055.263
      -814.988
 -16201120.078 7 -12696833.182 8  16968814.174    16968817.303        1777.141
      1396.840
  -9069266.735 9  -7194260.448 7  16977761.279    16977765.126        -266.017
      -204.713
 -29159605.140 9  17956023.103 7  18520883.462    18520888.648        2731.608
      2122.815
 88  3 25  4 58 29.0800000  0  4G 6G 9G11G13
   1700717.558 9 -10290356.002 8  16903368.141    16903369.901       -1052.408
      -842.179
 -16254559.089 9 -12738473.972 8  16958644.924    16958648.616        1766.527
      1381.852
  -9061056.528 8  -7187862.868 7  16979323.878    16979328.398        -286.008
      -249.701
 -29241442.667 9  17892253.625 8  18505309.278    18505314.699        2708.283
      2145.682
 88  3 25  4 58 59.0800000  0  4G 6G 9G11G13
   1733239.275 9 -10265014.426 7  16909555.744    16909558.293       -1091.570
      -862.685
 -16307558.616 8 -12779772.296 9  16948559.011    16948562.631        1781.886
      1379.907
  -9052359.294 8  -7181085.789 8  16980979.573    16980983.297        -318.496
      -250.329
 -29322881.901 8  17828794.502 8  18489812.625    18489817.325        2710.436
      2104.839
 88  3 25  4 59 29.0800000  0  4G 6G 9G11G13
   1766313.495 8 -10239242.325 8  16915849.569    16915851.602       -1126.832
      -844.062
 -16360114.952 8 -12820725.266 9  16938557.353    16938561.694        1765.443
      1364.702
  -9043175.494 7  -7173929.559 7  16982726.876    16982731.325        -302.093
      -240.293
 -29403920.271 8  17765647.741 7  18474391.614    18474396.972        2679.320
      2087.496
 88  3 25  4 59 59.0800000  0  4G 6G 9G11G13
   1799941.271 8 -10213038.873 6  16922249.549    16922252.415       -1115.174
      -905.709
 -16412224.549 8 -12861330.126 8  16928640.282    16928645.483        1730.140
      1348.242
  -9033505.451 7  -7166394.457 7  16984566.401    16984570.658        -326.590
      -253.696
 -29484555.585 9  17702815.042 7  18459046.720    18459052.049        2694.583
      2088.304
 88  3 25  5  0 29.0800000  0  4G 6G 9G11G13
   1834119.978 8 -10186406.139 7  16928753.671    16928756.337       -1142.215
      -883.550
 -16463887.395 8 -12901586.873 7  16918809.783    16918813.056        1723.633
      1340.674
  -9023353.575 8  -7158483.897 7  16986498.166    16986503.378        -367.570
      -268.609
 -29564789.386 9  17640295.217 9  18443778.753    18443785.215        2666.067
      2084.383
 88  3 25  5  0 59.0800000  0  4G 6G 9G11G13
   1868847.729 9 -10159345.560 8  16935362.040    16935363.391       -1170.269
      -906.113
 -16515103.024 8 -12941495.153 8  16909064.660    16909065.804        1683.785
      1331.297
  -9012723.618 8  -7150200.789 6  16988521.423    16988525.456        -366.310
      -290.737
 -29644622.802 8  17578087.386 8  18428588.037    18428591.478        2645.429
      2063.312
 88  3 25  5  1 29.0800000  0  4G 6G 9G11G13
   1904127.720 9 -10131854.678 7  16942076.735    16942078.704       -1188.929
      -936.964
 -16565865.757 9 -12981050.534 8  16899405.241    16899406.179        1680.093
      1307.212
  -9001613.996 8  -7141543.925 7  16990636.211    16990639.823        -374.109
      -290.575
 -29724050.990 9  17516195.304 8  18413473.496    18413476.679        2650.230
      2053.190
 88  3 25  5  1 59.0800000  0  4G 6G 9G11G13
   1939960.554 8 -10103933.006 8  16948895.464    16948897.443       -1214.869
      -940.854
 -16616172.421 8 -13020250.545 8  16889832.768    16889834.117        1678.746
      1311.506
  -8990025.821 7  -7132514.178 7  16992842.471    16992844.605        -369.061
      -302.555
 -29803072.498 7  17454620.135 8  18398434.711    18398440.541        2638.419
      2049.306
 88  3 25  5  2 29.0800000  0  4G 6G 9G11G13
   1976345.484 9 -10075581.130 7  16955818.642    16955820.635       -1202.541
      -936.250
 -16666021.502 8 -13059093.991 8  16880345.783    16880349.318        1669.041
      1279.393
  -8977961.619 8  -7123113.497 7  16995137.314    16995141.102        -391.158
      -302.450
 -29881687.272 8  17393361.885 8  18383475.575    18383480.649        2614.688
      2046.168
 88  3 25  5  2 59.0800000  0  4G 6G 9G11G13
   2013280.778 9 -10046800.398 8  16962847.579    16962849.019       -1242.333
      -970.792
 -16715412.020 8 -13097580.095 8  16870947.251    16870952.584        1641.449
      1276.411
  -8965425.045 7  -7113344.728 8  16997522.386    16997526.694        -413.702
      -338.092
 -29959895.648 9  17332420.327 8  18368593.532    18368597.689        2598.651
      2030.267
 88  3 25  5  3 29.0800000  0  4G 6G 9G11G13
   2050769.401 9 -10017588.499 7  16969981.647    16969983.697       -1256.304
      -972.706
 -16764338.371 8 -13135704.499 8  16861637.137    16861640.613        1631.282
      1264.704
  -8952414.563 8  -7103206.687 6  16999997.570    17000003.255        -446.157
      -339.521
 -30037693.600 8  17271798.578 8  18353788.676    18353794.121        2592.431
      2021.636
 88  3 25  5  3 59.0800000  0  4G 6G 9G11G13
   2088811.588 9  -9987945.249 8  16977221.008    16977224.036       -1267.675
     -1002.383
 -16812797.852 8 -13173465.127 8  16852415.205    16852419.107        1602.248
      1245.280
  -8938931.894 8  -7092700.710 7  17002564.199    17002568.834        -458.733
      -344.306
 -30115080.129 8  17211497.400 8  18339061.401    18339066.788        2579.601
      2005.163
 88  3 25  5  4 29.0800000  0  4G 6G 9G11G13
   2127405.239 9  -9957872.290 8  16984564.727    16984565.959       -1287.125
     -1016.153
 -16860789.754 8 -13210861.412 7  16843282.683    16843285.445        1608.731
      1231.056
  -8924980.477 8  -7081829.462 7  17005219.702    17005223.115        -465.033
      -362.388
 -30192055.803 9  17151516.383 7  18324413.950    18324419.280        2567.145
      1999.720
 88  3 25  5  4 59.0800000  0  4G 6G 9G11G13
   2166550.614 9  -9927369.421 8  16992013.559    16992016.641       -1322.930
     -1017.532
 -16908311.262 8 -13247891.179 8  16834238.317    16834241.288        1560.877
      1228.223
  -8910561.703 7  -7070594.036 7  17007962.058    17007966.442        -475.216
      -381.520
 -30268618.954 8  17091856.805 7  18309845.856    18309849.756        2546.387
      1987.553
 88  3 25  5  5 29.0800000  0  4G 6G 9G11G13
   2206248.510 8  -9896436.011 8  16999567.185    16999570.745       -1343.288
     -1044.531
 -16955359.228 7 -13284551.939 8  16825284.713    16825289.018        1542.049
      1238.389
  -8895676.709 8  -7058995.324 7  17010794.841    17010799.938        -516.818
      -385.534
 -30344767.348 8  17032520.410 8  18295353.715    18295358.913        2543.572
      1961.866
 88  3 25  5  5 59.0800000  0  4G 6G 9G11G13
   2246498.778 9  -9865072.171 7  17007227.896    17007230.848       -1343.464
     -1040.834
 -17001930.996 8 -13320841.646 8  16816422.871    16816428.051        1546.961
      1210.756
  -8880327.078 7  -7047034.575 8  17013715.948    17013719.551        -523.548
      -407.053
 -30420500.807 8  16973507.350 7  18280942.963    18280947.091        2524.362
      1963.487
 88  3 25  5  6 29.0800000  0  4G 6G 9G11G13
   2287301.331 9  -9833278.001 7  17014990.725    17014995.422       -1365.146
     -1058.605
 -17048024.018 8 -13356758.268 8  16807652.488    16807656.531        1522.616
      1212.173
  -8864514.525 8  -7034713.097 7  17016723.921    17016729.417        -543.285
      -416.125
 -30495817.910 8  16914818.721 7  18266610.315    18266615.675        2501.747
      1959.132
 88  3 25  5  6 59.0800000  0  4G 6G 9G11G13
   2328656.251 9  -9801053.407 8  17022861.711    17022865.441       -1385.377
     -1081.404
 -17093635.537 7 -13392299.701 9  16798973.682    16798977.930        1506.826
      1194.463
  -8848240.489 8  -7022032.032 7  17019821.749    17019825.534        -547.456
      -426.539
 -30570717.572 8  16856455.366 7  18252358.024    18252362.524        2499.666
      1941.105
 88  3 25  5  7 29.0800000  0  4G 6G 9G11G13
   2370565.296 9  -9768397.022 8  17030835.520    17030840.046       -1414.236
     -1102.344
 -17138761.221 8 -13427462.564 8  16790387.507    16790389.749        1520.136
      1182.844
  -8831504.879 8  -7008991.286 7  17023006.637    17023010.408        -547.097
      -446.914
 -30645196.483 8  16798419.876 9  18238184.180    18238189.108        2482.912
      1924.123
 88  3 25  5  7 59.0800000  0  4G 6G 9G11G13
   2413026.599 8  -9735310.309 8  17038915.981    17038920.657       -1427.258
     -1110.148
 -17183400.200 8 -13462246.174 7  16781891.550    16781894.214        1493.055
      1156.186
  -8814311.199 9  -6995593.596 8  17026278.566    17026282.578        -583.300
      -447.293
 -30719255.621 9  16740711.467 8  18224092.411    18224096.738        2457.441
      1900.244
 88  3 25  5  8 29.0800000  0  4G 6G 9G11G13
   2456038.695 8  -9701794.413 8  17047099.913    17047105.061       -1443.414
     -1127.852
 -17227551.153 8 -13496649.498 7  16773490.315    16773491.915        1471.197
      1144.355
  -8796662.314 8  -6981841.212 8  17029638.317    17029641.358        -606.753
      -474.261
 -30792894.485 9  16683330.553 8  18210078.428    18210082.711        2455.974
      1891.339
 88  3 25  5  8 59.0800000  0  4G 6G 9G11G13
   2499602.244 8  -9667848.800 8  17055390.375    17055395.665       -1453.007
     -1141.870
 -17271210.674 7 -13530669.912 7  16765181.869    16765183.839        1451.046
      1126.410
  -8778559.310 8  -6967734.965 7  17033082.580    17033085.811        -595.772
      -480.506
 -30866112.027 7  16626277.939 8  18196145.868    18196150.287        2416.031
      1910.248
 88  3 25  5  9 29.0800000  0  4G 6G 9G11G13
   2543717.916 8  -9633472.962 9  17063783.853    17063791.388       -1469.100
     -1159.964
 -17314375.444 8 -13564304.800 8  16756967.691    16756971.403        1426.054
      1100.909
  -8760003.177 9  -6953275.641 9  17036613.791    17036617.422        -633.850
      -470.359
 -30938905.954 9  16569555.420 8  18182292.814    18182297.028        2428.638
      1893.054
 88  3 25  5  9 59.0800000  0  4G 6G 9G11G13
   2588386.307 8  -9598666.439 9  17072285.414    17072290.693       -1503.549
     -1157.218
 -17357042.274 8 -13597551.675 8  16748849.544    16748853.095        1418.263
      1096.112
  -8740994.894 8  -6938463.980 7  17040229.943    17040234.946        -618.563
      -490.814
 -31011274.586 7  16513164.307 8  18168522.202    18168525.399        2403.710
      1867.969
 88  3 25  5 10 29.0800000  0  4G 6G 9G11G13
   2633605.214 9  -9563430.945 8  17080888.914    17080894.685       -1522.137
     -1178.438
 -17399210.419 8 -13630409.967 8  16740824.738    16740829.986        1396.685
      1096.752
  -8721537.877 9  -6923302.671 8  17043931.431    17043937.369        -653.506
      -494.928
 -31083218.543 9  16457104.091 8  18154831.013    18154836.213        2413.766
      1866.335
 88  3 25  5 10 59.0800000  0  4G 6G 9G11G13
   2679373.846 8  -9527767.070 8  17089599.822    17089604.192       -1553.500
     -1187.038
 -17440878.060 8 -13662878.238 9  16732895.749    16732899.670        1383.710
      1078.359
  -8701634.705 7  -6907793.703 8  17047720.953    17047723.894        -685.755
      -534.932
 -31154737.585 8  16401374.988 8  18141222.902    18141226.779        2385.529
      1852.895
 88  3 25  5 11 29.0800000  0  4G 6G 9G11G13
   2725693.321 9  -9491673.992 8  17098413.445    17098419.250       -1539.880
     -1203.200
 -17482041.296 7 -13694953.459 9  16725061.011    16725065.416        1374.508
      1060.736
  -8681286.096 8  -6891937.618 7  17051593.427    17051594.879        -679.168
      -527.351
 -31225829.398 9  16345978.795 7  18127693.444    18127697.500        2373.870
      1851.074
 88  3 25  5 11 59.0800000  0  4G 6G 9G11G13
   2772561.503 9  -9455153.340 9  17107331.838    17107337.336       -1555.757
     -1216.249
 -17522697.790 8 -13726633.841 8  16717324.140    16717329.207        1349.397
      1062.346
  -8660493.602 8  -6875735.662 8  17055549.397    17055554.312        -678.961
      -560.471
 -31296493.511 9  16290915.865 7  18114246.230    18114251.655        2335.625
      1812.853
 88  3 25  5 12 29.0800000  0  4G 6G 9G11G13
   2819982.422 8  -9418201.994 9  17116354.525    17116361.053       -1597.822
     -1244.720
 -17562844.595 8 -13757917.049 7  16709687.266    16709688.097        1319.844
      1038.597
  -8639258.529 8  -6859188.851 8  17059589.621    17059594.768        -711.600
      -551.169
 -31366727.676 8  16236187.961 7  18100880.756    18100885.810        2350.808
      1824.752
 88  3 25  5 12 59.0800000  0  4G 6G 9G11G13
   2867953.120 8  -9380822.247 9  17125484.837    17125489.885       -1594.329
     -1247.970
 -17602479.171 8 -13788801.155 8  16702143.719    16702146.280        1321.080
      1031.233
  -8617582.647 8  -6842298.566 8  17063713.102    17063719.647        -726.504
      -577.360
 -31436531.426 9  16181795.470 7  18087598.198    18087601.037        2337.587
      1807.814
 88  3 25  5 13 29.0800000  0  4G 6G 9G11G13
   2916473.109 8  -9343014.468 8  17134718.481    17134722.614       -1633.826
     -1263.940
 -17641599.551 8 -13819284.572 7  16694698.360    16694702.923        1294.039
      1000.146
  -8595468.092 8  -6825066.445 7  17067922.683    17067927.666        -732.150
      -571.357
 -31505904.248 8  16127738.757 8  18074396.428    18074401.408        2325.243
      1804.371
 88  3 25  5 13 59.0800000  0  4G 6G 9G11G13
   2965541.810 8  -9304779.125 8  17144054.642    17144060.975       -1639.201
     -1283.209
 -17680203.559 9 -13849365.604 8  16687353.089    16687357.623        1291.830
       995.753
  -8572917.335 8  -6807494.397 7  17072214.967    17072217.663        -769.844
      -577.596
 -31574845.784 9  16074018.081 8  18061277.623    18061283.967        2296.272
      1790.086
 88  3 25  5 14 29.0800000  0  4G 6G 9G11G13
   3015159.806 9  -9266115.767 9  17153497.210    17153502.141       -1651.880
     -1297.059
 -17718287.807 8 -13879041.605 8  16680105.742    16680108.977        1268.856
       996.759
  -8549931.523 8  -6789583.363 8  17076588.303    17076591.197        -770.730
      -602.818
 -31643353.685 9  16020635.328 8  18048241.099    18048245.424        2277.014
      1777.049
 88  3 25  5 14 59.0800000  0  4G 6G 9G11G13
   3065325.908 8  -9227025.307 8  17163043.372    17163048.673       -1696.648
     -1305.821
 -17755850.593 7 -13908311.300 8  16672958.728    16672963.008        1240.028
       970.077
  -8526512.767 8  -6771334.976 8  17081043.038    17081048.797        -783.815
      -623.504
 -31711428.144 7  15967590.305 7  18035287.585    18035291.670        2267.397
      1767.772
 88  3 25  5 15 29.0800000  0  4G 6G 9G11G13
   3116038.432 8  -9187509.074 9  17172692.490    17172699.009       -1692.764
     -1328.563
 -17792890.897 9 -13937173.846 7  16665909.661    16665912.609        1225.619
       962.633
  -8502664.440 8  -6752751.880 8  17085582.045    17085588.785        -818.504
      -631.233
 -31779069.977 8  15914882.414 8  18022415.139    18022419.848        2239.797
      1750.392
 88  3 25  5 15 59.0800000  0  4G 6G 9G11G13
   3167297.227 8  -9147567.177 8  17182447.026    17182453.088       -1706.999
     -1340.692
 -17829405.843 8 -13965627.070 7  16658960.378    16658962.784        1208.179
       951.113
  -8478387.806 8  -6733835.023 8  17090202.467    17090207.924        -821.430
      -631.637
 -31846277.747 9  15862512.728 8  18009625.381    18009631.089        2228.362
      1745.216
 88  3 25  5 16 29.0800000  0  4G 6G 9G11G13
   3219102.997 8  -9107199.052 7  17192305.397    17192311.683       -1721.520
     -1338.946
 -17865392.033 8 -13993668.262 6  16652113.012    16652114.112        1206.799
       931.123
  -8453683.521 8  -6714584.915 8  17094903.465    17094906.611        -833.536
      -647.023
 -31913049.146 8  15810483.098 7  17996919.509    17996924.196        2214.232
      1750.367
 88  3 25  5 16 59.0800000  0  4G 6G 9G11G13
   3271454.687 8  -9066405.531 8  17202267.942    17202274.422       -1759.510
     -1365.237
 -17900847.505 7 -14021295.914 7  16645365.235    16645369.182        1185.452
       910.897
  -8428554.474 8  -6695003.821 8  17099684.065    17099687.743        -839.453
      -649.241
 -31979384.112 9  15758793.534 8  17984296.515    17984300.685        2207.246
      1734.789
 88  3 25  5 17 29.0800000  0  4G 6G 9G11G13
   3324352.609 8  -9025186.393 8  17212333.755    17212339.659       -1791.232
     -1359.825
 -17935769.124 8 -14048507.563 8  16638720.916    16638724.910        1142.949
       902.117
  -8403001.513 8  -6675092.429 7  17104547.857    17104552.752        -866.980
      -668.709
 -32045281.092 9  15707445.267 7  17971756.916    17971762.106        2194.096
      1705.168
 88  3 25  5 17 59.0800000  0  4G 6G 9G11G13
   3377795.278 8  -8983542.773 8  17222503.915    17222508.528       -1790.594
     -1384.785
 -17970155.524 8 -14075302.148 7  16632176.364    16632181.530        1143.778
       896.245
  -8377027.489 8  -6654852.922 8  17109490.551    17109494.067        -841.733
      -684.517
 -32110739.903 8  15656438.415 8  17959300.485    17959305.659        2174.057
      1705.646
 88  3 25  5 18 29.0800000  0  4G 6G 9G11G13
   3431781.971 8  -8941475.249 8  17232777.584    17232782.194       -1794.342
     -1404.551
 -18004004.401 8 -14101677.885 8  16625737.070    16625739.157        1146.138
       878.921
  -8350634.390 8  -6634286.869 8  17114513.151    17114518.471        -895.759
      -684.753
 -32175759.702 8  15605773.664 8  17946927.802    17946931.486        2153.076
      1702.745
 88  3 25  5 18 59.0800000  0  4G 6G 9G11G13
   3486313.093 8  -8898983.466 9  17243154.696    17243160.165       -1816.255
     -1422.739
 -18037312.622 8 -14127632.342 8  16619398.085    16619400.949        1096.809
       873.155
  -8323823.188 8  -6613395.039 8  17119613.573    17119618.969        -897.251
      -703.357
 -32240339.566 8  15555451.688 7  17934637.618    17934643.271        2126.282
      1663.778
 88  3 25  5 19 29.0800000  0  4G 6G 9G11G13
   3541386.592 8  -8856069.062 8  17253634.763    17253640.302       -1837.316
     -1436.695
 -18070078.981 8 -14153164.571 9  16613161.866    16613165.443        1092.439
       845.522
  -8296597.163 8  -6592179.939 8  17124795.473    17124798.932        -914.746
      -709.838
 -32304479.959 9  15505472.199 8  17922432.492    17922436.827        2135.700
      1659.683
 88  3 25  5 19 59.0800000  0  4G 6G 9G11G13
   3597000.472 8  -8812733.588 8  17264216.732    17264222.134       -1856.645
     -1460.929
 -18102303.012 8 -14178274.198 8  16607028.928    16607031.792        1053.293
       832.343
  -8268959.566 8  -6570644.132 8  17130056.335    17130058.853        -926.118
      -716.673
 -32368181.393 8  15455834.722 7  17910311.092    17910315.831        2124.400
      1647.958
 88  3 25  5 20 29.0800000  0  4G 6G 9G11G13
   3653157.531 8  -8768974.857 8  17274903.513    17274908.888       -1882.977
     -1475.687
 -18133978.743 8 -14202956.587 7  16601002.921    16601004.340        1047.870
       825.097
  -8240909.069 8  -6548786.593 8  17135392.433    17135396.981        -927.553
      -739.459
 -32431439.194 9  15406542.966 7  17898273.557    17898278.809        2105.892
      1620.611
 88  3 25  5 20 59.0800000  0  4G 6G 9G11G13
   3709856.045 9  -8724794.211 8  17285692.790    17285698.642       -1899.348
     -1466.118
 -18165104.662 8 -14227210.563 6  16595079.852    16595082.840        1032.472
       789.300
  -8212448.413 8  -6526609.460 8  17140808.974    17140814.926        -939.579
      -736.507
 -32494253.741 9  15357596.581 8  17886320.244    17886324.990        2085.318
      1635.723
 88  3 25  5 21 29.0800000  0  4G 6G 9G11G13
   3767093.833 9  -8680193.337 8  17296584.730    17296591.117       -1918.176
     -1485.107
 -18195680.570 8 -14251035.955 7  16589260.924    16589264.730        1009.250
       787.175
  -8183581.574 8  -6504115.848 8  17146301.649    17146307.314        -963.438
      -737.669
 -32556626.787 8  15308994.226 8  17874450.623    17874456.957        2085.374
      1595.526
 88  3 25  5 21 59.0800000  0  4G 6G 9G11G13
   3824871.136 8  -8635172.085 7  17307579.924    17307583.908       -1934.810
     -1496.727
 -18225703.070 8 -14274430.099 7  16583547.542    16583552.996         983.294
       777.953
  -8154309.129 9  -6481306.139 8  17151872.321    17151875.795        -978.031
      -759.182
 -32618556.107 9  15260737.618 8  17862665.989    17862670.466        2062.065
      1601.926
 88  3 25  5 22 29.0800000  0  4G 6G 9G11G13
   3883187.384 9  -8589730.861 9  17318678.366    17318682.252       -1942.266
     -1520.954
 -18255169.720 8 -14297391.106 8  16577939.990    16577944.986         970.152
       765.352
  -8124632.849 8  -6458181.727 8  17157518.626    17157522.832        -998.924
      -783.334
 -32680040.756 8  15212827.522 8  17850966.620    17850970.209        2057.288
      1585.080
 88  3 25  5 22 59.0800000  0  4G 6G 9G11G13
   3942040.968 8  -8543870.942 7  17329877.015    17329882.825       -1955.240
     -1535.929
 -18284079.100 7 -14319917.891 7  16572437.470    16572442.080         946.987
       745.505
  -8094555.527 7  -6434744.838 8  17163241.773    17163246.603       -1010.590
      -786.746
 -32741081.351 8  15165263.420 6  17839350.786    17839353.569        2049.497
      1587.243
 88  3 25  5 23 29.0800000  0  4G 6G 9G11G13
   4001432.328 9  -8497591.975 8  17341179.355    17341183.080       -1981.061
     -1531.797
 -18312428.039 8 -14342007.969 6  16567046.030    16567047.229         957.816
       727.342
  -8064078.184 8  -6410996.273 8  17169041.415    17169047.892       -1031.826
      -793.786
 -32801675.785 8  15118046.994 7  17827819.696    17827823.330        2012.919
      1578.811
 88  3 25  5 23 59.0800000  0  4G 6G 9G11G13
   4061360.011 9  -8450895.098 8  17352583.172    17352587.639       -2002.385
     -1571.180
 -18340214.714 7 -14363659.926 7  16561757.521    16561759.236         923.646
       711.124
  -8033203.186 8  -6386937.849 9  17174916.947    17174922.401       -1051.427
      -811.589
 -32861824.232 8  15071178.089 7  17816373.895    17816377.887        2003.677
      1554.751
 88  3 25  5 24 29.0800000  0  4G 6G 9G11G13
   4121821.906 9  -8403781.958 9  17364088.045    17364092.599       -2025.606
     -1578.077
 -18367438.661 8 -14384873.391 7  16556577.556    16556579.777         898.351
       714.163
  -8001933.876 8  -6362572.150 8  17180868.555    17180873.514       -1036.866
      -806.885
 -32921527.754 8  15024655.888 9  17805013.118    17805016.661        2000.192
      1542.292
 88  3 25  5 24 59.0800000  0  4G 6G 9G11G13
   4182816.320 8  -8356253.869 8  17375695.670    17375700.243       -2026.994
     -1594.066
 -18394098.219 8 -14405647.081 7  16551503.315    16551506.852         872.530
       694.353
  -7970273.159 9  -6337901.431 7  17186894.083    17186895.244       -1058.803
      -828.888
 -32980786.308 9  14978480.415 6  17793736.426    17793741.540        1978.605
      1532.120
 88  3 25  5 25 29.0800000  0  4G 6G 9G11G13
   4244345.690 8  -8308308.916 7  17387404.192    17387408.444       -2052.551
     -1609.973
 -18420188.337 8 -14425977.035 7  16546537.999    16546542.966         852.881
       671.685
  -7938219.566 9  -6312924.587 7  17192991.919    17192995.516       -1052.623
      -831.417
 -33039595.891 9  14932654.788 7  17782545.022    17782549.425        1964.578
      1527.671
 88  3 25  5 25 59.0800000  0  4G 6G 9G11G13
   4306409.195 9  -8259947.758 9  17399213.854    17399216.893       -2072.647
     -1598.651
 -18445706.579 8 -14445861.371 8  16541682.350    16541686.644         831.032
       656.822
  -7905775.231 8  -6287643.288 8  17199166.102    17199172.441       -1080.111
      -836.823
 -33097956.042 8  14887179.359 7  17771439.446    17771443.422        1936.939
      1518.661
 88  3 25  5 26 29.0800000  0  4G 6G 9G11G13
   4369003.232 9  -8211173.213 8  17411126.607    17411129.446       -2101.442
     -1624.134
 -18470653.396 7 -14465300.442 7  16536934.879    16536939.299         824.325
       636.354
  -7872944.784 8  -6262061.132 8  17205414.519    17205418.995       -1106.043
      -858.422
 -33155869.084 9  14842052.315 8  17760419.051    17760422.296        1929.707
      1501.505
 88  3 25  5 26 59.0800000  0  4G 6G 9G11G13
   4432125.203 8  -8161987.274 9  17423137.697    17423141.663       -2114.799
     -1654.619
 -18495028.764 8 -14484294.221 7  16532297.809    16532299.083         795.602
       620.055
  -7839731.727 9  -6236180.835 7  17211735.573    17211739.146       -1127.351
      -865.443
 -33213336.365 9  14797272.653 9  17749483.770    17749488.114        1897.857
      1490.824
 88  3 25  5 27 29.0800000  0  4G 6G 9G11G13
   4495776.166 9  -8112389.149 8  17435249.408    17435253.418       -2113.739
     -1647.461
 -18518828.624 8 -14502839.570 8  16527769.315    16527770.283         808.161
       611.051
  -7806136.586 8  -6210002.781 7  17218127.274    17218130.955       -1142.717
      -859.578
 -33270354.686 8  14752842.810 7  17738632.445    17738637.081        1866.765
      1476.513
 88  3 25  5 27 59.0800000  0  4G 6G 9G11G13
   4559958.169 9  -8062377.222 9  17447464.261    17447467.888       -2156.553
     -1669.805
 -18542047.600 8 -14520932.289 7  16523350.433    16523352.332         775.490
       585.307
  -7772158.091 9  -6183526.009 8  17224593.139    17224596.359       -1136.370
      -901.135
 -33326920.908 9  14708765.252 7  17727867.566    17727872.579        1886.151
      1472.356
 88  3 25  5 28 29.0800000  0  4G 6G 9G11G13
   4624668.542 9  -8011953.571 8  17459777.768    17459780.966       -2156.920
     -1695.499
 -18564685.582 7 -14538572.278 7  16519041.618    16519045.241         731.910
       583.120
  -7737799.663 9  -6156753.199 8  17231130.334    17231135.936       -1142.430
      -909.866
 -33383036.582 8  14665038.779 8  17717189.664    17717194.092        1857.690
      1436.981
 88  3 25  5 28 59.0800000  0  4G 6G 9G11G13
   4689902.678 8  -7961121.799 8  17472191.143    17472194.557       -2168.411
     -1703.757
 -18586744.111 7 -14555760.740 8  16514844.831    16514847.206         732.349
       575.496
  -7703067.206 9  -6129688.959 8  17237741.304    17237745.671       -1173.163
      -898.656
 -33438704.324 9  14621661.334 7  17706596.610    17706601.208        1853.496
      1431.438
 88  3 25  5 29 29.0800000  0  4G 6G 9G11G13
   4755660.487 9  -7909881.984 8  17484704.222    17484708.258       -2222.764
     -1711.289
 -18608220.473 8 -14572495.563 8  16510757.672    16510762.266         697.788
       548.304
  -7667961.859 9  -6102334.147 8  17244420.275    17244425.702       -1153.419
      -920.000
 -33493922.835 8  14578633.937 8  17696088.736    17696093.223        1822.021
      1429.860
 88  3 25  5 29 59.0800000  0  4G 6G 9G11G13
   4821942.421 8  -7858233.736 8  17497317.617    17497321.675       -2209.232
     -1736.461
 -18629110.941 8 -14588773.845 7  16506781.074    16506785.654         685.077
       541.687
  -7632483.930 8  -6074689.006 7  17251172.771    17251177.986       -1209.837
      -940.680
 -33548690.498 8  14535957.866 7  17685666.609    17685671.249        1816.200
      1420.372
 88  3 25  5 30 29.0800000  0  4G 6G 9G11G13
   4888748.481 8  -7806177.084 8  17510028.544    17510034.171       -2220.866
     -1736.392
 -18649412.784 8 -14604593.464 8  16502919.143    16502922.262         675.715
       522.617
  -7596634.685 8  -6046754.521 8  17257992.991    17257997.175       -1189.886
      -940.127
 -33603005.959 8  14493634.149 8  17675331.805    17675335.713        1803.385
      1411.529
 88  3 25  5 30 59.0800000  0  4G 6G 9G11G13
   4956076.585 8  -7753713.645 8  17522842.964    17522845.750       -2252.891
     -1766.113
 -18669124.888 8 -14619953.542 7  16499167.141    16499171.962         647.741
       497.991
  -7560416.886 9  -6018532.837 8  17264886.547    17264889.696       -1219.877
      -944.477
 -33656869.771 9  14451662.368 7  17665081.627    17665086.064        1790.610
      1402.128
 88  3 25  5 31 29.0800000  0  4G 6G 9G11G13
   5023926.117 8  -7700843.908 8  17535753.489    17535757.478       -2259.095
     -1762.689
 -18688244.930 9 -14634852.276 8  16495529.245    16495531.089         640.285
       485.874
  -7523832.072 9  -5990025.205 8  17271848.424    17271852.724       -1230.068
      -959.868
 -33710280.867 9  14410043.363 8  17654916.646    17654923.020        1778.888
      1387.339
 88  3 25  5 31 59.0800000  0  4G 6G 9G11G13
   5092293.782 8  -7647570.433 8  17548763.058    17548768.420       -2277.101
     -1783.089
 -18706773.192 7 -14649289.884 7  16492002.787    16492007.867         606.976
       472.260
  -7486884.818 8  -5961235.129 7  17278878.446    17278884.224       -1242.189
      -944.458
 -33763241.601 8  14368775.272 8  17644839.039    17644843.901        1760.961
      1356.419
 88  3 25  5 32 29.0800000  0  4G 6G 9G11G13
   5161177.167 9  -7593895.084 8  17561871.542    17561875.758       -2292.930
     -1794.162
 -18724709.080 8 -14663265.894 7  16488590.630    16488593.249         582.359
       462.057
  -7449578.107 8  -5932164.968 8  17285979.875    17285983.196       -1245.571
      -985.879
 -33815752.489 9  14327857.736 7  17634848.200    17634851.581        1750.722
      1365.305
 88  3 25  5 32 59.0800000  0  4G 6G 9G11G13
   5230575.897 8  -7539818.171 8  17575077.607    17575082.086       -2320.920
     -1794.199
 -18742049.966 7 -14676778.268 8  16485290.260    16485293.136         574.505
       448.890
  -7411913.422 8  -5902815.840 8  17293146.057    17293149.384       -1260.578
      -983.965
 -33867812.673 8  14287291.379 7  17624940.146    17624943.686        1710.970
      1349.466
 88  3 25  5 33 29.0800000  0  4G 6G 9G11G13
   5300491.176 8  -7485338.738 7  17588383.079    17588386.075       -2319.900
     -1834.005
 -18758791.798 8 -14689823.868 7  16482104.244    16482106.892         537.727
       425.905
  -7373890.355 8  -5873187.474 8  17300381.064    17300384.360       -1251.121
      -984.450
 -33919419.303 9  14247078.433 8  17615120.802    17615124.257        1718.538
      1339.139
 88  3 25  5 33 59.0800000  0  4G 6G 9G11G13
   5370921.026 8  -7430458.364 7  17601785.001    17601788.146       -2356.374
     -1833.949
 -18774933.415 7 -14702401.756 7  16479033.904    16479037.656         527.918
       422.332
  -7335511.477 9  -5843281.850 8  17307683.470    17307689.183       -1284.613
     -1004.595
 -33970572.902 9  14207218.517 7  17605385.852    17605390.294        1685.436
      1328.706
 88  3 25  5 34 29.0800000  0  4G 6G 9G11G13
   5441862.416 8  -7375179.364 7  17615285.537    17615287.636       -2362.786
     -1844.201
 -18790474.686 8 -14714511.838 8  16476075.528    16476079.003         515.438
       391.586
  -7296780.873 8  -5813102.163 8  17315054.299    17315059.291       -1296.989
     -1005.024
 -34021275.090 8  14167710.339 8  17595737.066    17595742.273        1701.042
      1307.697
 88  3 25  5 34 59.0800000  0  4G 6G 9G11G13
   5513314.674 8  -7319502.303 8  17628881.773    17628885.877       -2399.643
     -1861.177
 -18805413.377 7 -14726152.386 7  16473231.824    16473236.417         500.423
       390.661
  -7257699.998 8  -5782649.531 8  17322491.843    17322495.675       -1305.873
     -1015.264
 -34071524.248 8  14128555.184 8  17586174.934    17586178.562        1665.381
      1306.641
 88  3 25  5 35 29.0800000  0  4G 6G 9G11G13
   5585277.477 9  -7263427.422 8  17642575.333    17642579.479       -2407.929
     -1883.883
 -18819747.161 7 -14737321.554 7  16470503.941    16470507.218         453.853
       361.922
  -7218270.168 8  -5751924.988 8  17329993.878    17329999.288       -1323.568
     -1027.872
 -34121319.930 8  14089753.359 7  17576699.469    17576704.170        1657.486
      1291.535
 88  3 25  5 35 59.0800000  0  4G 6G 9G11G13
   5657749.025 8  -7206956.093 8  17656366.568    17656369.647       -2409.827
     -1882.261
 -18833474.396 8 -14748018.103 8  16467893.989    16467894.817         465.934
       346.052
  -7178493.748 8  -5720930.381 9  17337563.613    17337567.991       -1328.703
     -1040.442
 -34170663.216 9  14051304.080 7  17567309.709    17567313.488        1640.445
      1271.433
 88  3 25  5 36 29.0800000  0  4G 6G 9G11G13
   5730728.120 9  -7150089.295 8  17670253.437    17670256.317       -2449.754
     -1907.290
 -18846593.769 8 -14758240.988 7  16465396.316    16465399.619         430.990
       327.019
  -7138372.914 8  -5689667.379 9  17345198.183    17345203.430       -1342.459
     -1057.400
 -34219553.035 9  14013208.119 7  17558006.320    17558010.655        1612.598
      1264.642
 88  3 25  5 36 59.0800000  0  4G 6G 9G11G13
   5804211.692 9  -7092829.384 7  17684237.289    17684240.614       -2465.153
     -1913.808
 -18859104.917 8 -14767989.954 6  16463015.973    16463017.990         418.255
       327.311
  -7097911.329 8  -5658138.880 9  17352897.606    17352903.161       -1355.170
     -1057.754
 -34267990.595 8  13975464.605 7  17548788.660    17548793.936        1616.346
      1254.308
 88  3 25  5 37 29.0800000  0  4G 6G 9G11G13
   5878197.397 8  -7035178.204 8  17698316.623    17698319.723       -2459.244
     -1932.133
 -18871007.357 8 -14777264.580 7  16460750.732    16460754.336         388.232
       294.981
  -7057111.873 8  -5626347.096 8  17360661.619    17360668.067       -1365.975
     -1073.077
 -34315976.694 8  13938072.860 7  17539657.478    17539661.432        1577.280
      1232.044
 88  3 25  5 37 59.0800000  0  4G 6G 9G11G13
   5952685.844 8  -6977135.262 8  17712491.244    17712494.275       -2496.133
     -1934.631
 -18882297.433 8 -14786062.039 7  16458602.256    16458605.789         371.142
       279.527
  -7015974.895 8  -5594292.317 8  17368490.364    17368494.425       -1373.088
     -1067.547
 -34363509.876 7  13901034.027 8  17530612.253    17530615.615        1588.691
      1230.572
 88  3 25  5 38 29.0800000  0  4G 6G 9G11G13
   6027676.572 9  -6918700.959 7  17726761.346    17726764.610       -2506.763
     -1965.333
 -18892972.799 7 -14794380.519 6  16456571.196    16456573.285         345.808
       259.935
  -6974501.708 8  -5561975.545 8  17376382.143    17376386.976       -1397.035
     -1076.383
 -34410588.842 8  13864349.142 7  17521652.683    17521657.076        1574.289
      1219.405
 88  3 25  5 38 59.0800000  0  4G 6G 9G11G13
   6103167.912 8  -6859876.561 8  17741126.825    17741130.524       -2530.678
     -1954.515
 -18903032.121 7 -14802218.941 7  16454656.112    16454658.317         326.510
       258.649
  -6932694.421 8  -5529398.437 8  17384337.761    17384342.752       -1401.023
     -1087.437
 -34457214.172 8  13828017.746 7  17512780.185    17512784.889        1540.646
      1196.104
 88  3 25  5 39 29.0800000  0  4G 6G 9G11G13
   6179155.559 9  -6800665.423 7  17755586.634    17755589.835       -2532.791
     -1975.275
 -18912476.517 7 -14809578.219 7  16452858.958    16452861.963         316.622
       241.120
  -6890557.976 8  -5496564.841 8  17392355.754    17392361.074       -1393.559
     -1102.487
 -34503388.389 9  13792037.862 7  17503994.778    17503998.187        1531.858
      1196.141
 88  3 25  5 39 59.0800000  0  4G 6G 9G11G13
   6255639.454 9  -6741067.609 8  17770141.301    17770144.481       -2562.456
     -2001.373
 -18921303.363 8 -14816456.272 7  16451180.231    16451183.638         273.879
       224.678
  -6848093.118 8  -5463475.342 9  17400437.237    17400440.372       -1423.279
     -1092.452
 -34549109.586 9  13756410.985 7  17495293.385    17495297.998        1504.586
      1173.628
 88  3 25  5 40 29.0800000  0  4G 6G 9G11G13
   6332618.725 9  -6681083.772 9  17784789.592    17784792.961       -2560.518
     -2024.383
 -18929510.213 8 -14822851.233 7  16449618.463    16449621.126         270.570
       211.704
  -6805301.300 9  -5430131.083 8  17408579.958    17408583.751       -1421.716
     -1124.223
 -34594377.149 8  13721137.576 8  17486679.213    17486683.885        1478.238
      1180.476
 88  3 25  5 40 59.0800000  0  4G 6G 9G11G13
   6410091.340 9  -6620715.530 8  17799532.630    17799535.547       -2589.608
     -2015.298
 -18937096.628 7 -14828762.713 8  16448175.068    16448177.898         236.719
       166.940
  -6762185.409 8  -5396534.275 9  17416784.325    17416788.403       -1452.872
     -1107.408
 -34639191.918 8  13686216.996 7  17478152.111    17478155.760        1477.672
      1158.057
 88  3 25  5 41 29.0800000  0  4G 6G 9G11G13
   6488056.499 8  -6559963.482 8  17814369.259    17814372.066       -2598.141
     -2031.274
 -18944060.601 8 -14834189.216 6  16446848.453    16446851.317         221.552
       178.186
  -6718746.978 8  -5362686.136 7  17425050.875    17425053.704       -1458.047
     -1132.058
 -34683554.004 8  13651649.152 7  17469709.247    17469714.345        1481.619
      1133.606
 88  3 25  5 41 59.0800000  0  4G 6G 9G11G13
   6566509.621 9  -6498831.195 8  17829298.254    17829301.300       -2630.445
     -2034.815
 -18950403.149 7 -14839131.448 6  16445641.134    16445645.399         201.153
       159.993
  -6674990.683 9  -5328590.348 8  17433377.445    17433382.072       -1448.327
     -1140.391
 -34727465.831 9  13617432.152 8  17461353.204    17461357.003        1469.275
      1132.580
 88  3 25  5 42 29.0800000  0  4G 6G 9G11G13
   6645450.327 8  -6437318.980 8  17844319.966    17844323.826       -2633.802
     -2060.416
 -18956122.160 6 -14843587.835 6  16444553.094    16444556.615         174.391
       141.941
  -6630917.779 9  -5294247.816 8  17441764.096    17441768.516       -1485.678
     -1143.305
 -34770925.934 9  13583567.166 7  17453083.000    17453087.348        1445.639
      1110.204
 88  3 25  5 42 59.0800000  0  4G 6G 9G11G13
   6724878.831 8  -6375426.674 8  17859434.008    17859438.650       -2663.985
     -2062.684
 -18961214.432 8 -14847555.824 6  16443584.674    16443586.963         177.804
       130.999
  -6586528.607 9  -5259658.852 9  17450211.302    17450216.511       -1476.317
     -1145.281
 -34813932.556 8  13550055.522 7  17444898.453    17444903.543        1423.766
      1104.960
 88  3 25  5 43 29.0800000  0  4G 6G 9G11G13
   6804792.978 8  -6313155.937 8  17874643.094    17874645.630       -2664.783
     -2081.667
 -18965679.165 8 -14851034.848 7  16442735.878    16442737.540         130.205
       101.912
  -6541825.581 9  -5224825.323 8  17458717.425    17458722.676       -1515.861
     -1167.172
 -34856486.570 8  13516896.568 6  17436801.798    17436805.664        1423.215
      1100.791
 88  3 25  5 43 59.0800000  0  4G 6G 9G11G13
   6885190.607 7  -6250508.443 8  17889940.724    17889944.783       -2677.510
     -2096.133
 -18969515.554 8 -14854024.249 7  16442004.290    16442008.553         123.618
        94.754
  -6496811.562 8  -5189749.465 8  17467284.162    17467287.167       -1509.051
     -1181.483
 -34898588.297 9  13484090.052 7  17428788.891    17428793.040        1404.276
      1087.897
 88  3 25  5 44 29.0800000  0  4G 6G 9G11G13
   6966068.031 7  -6187487.101 8  17905331.184    17905334.552       -2707.477
     -2106.349
 -18972724.324 7 -14856524.584 6  16441394.769    16441396.861          78.611
        78.530
  -6451490.459 8  -5154434.307 8  17475906.828    17475912.080       -1521.061
     -1198.925
 -34940240.358 9  13451633.926 8  17420863.660    17420868.027        1376.103
      1076.029
 88  3 25  5 44 59.0800000  0  4G 6G 9G11G13
   7047424.878 8  -6124092.189 7  17920811.595    17920817.500       -2710.516
     -2125.176
 -18975303.059 8 -14858534.001 7  16440903.001    16440907.134          77.415
        45.746
  -6405863.107 8  -5118880.534 8  17484591.073    17484594.175       -1533.046
     -1169.179
 -34981441.543 8  13419529.124 7  17413023.413    17413027.465        1383.559
      1068.516
 88  3 25  5 45 29.0800000  0  4G 6G 9G11G13
   7129260.802 8  -6060323.962 8  17936385.867    17936390.024       -2741.719
     -2118.521
 -18977249.135 8 -14860050.428 6  16440532.902    16440535.193          41.961
        30.547
  -6359930.358 8  -5083088.771 8  17493331.327    17493336.032       -1541.682
     -1198.950
 -35022190.575 9  13387776.651 7  17405268.957    17405272.813        1337.252
      1054.833
 88  3 25  5 45 59.0800000  0  4G 6G 9G11G13
   7211572.291 8  -5996185.145 8  17952048.213    17952052.734       -2743.115
     -2155.276
 -18978563.309 6 -14861074.452 6  16440282.244    16440285.551          32.065
        35.089
  -6313696.130 9  -5047062.101 8  17502129.814    17502133.276       -1532.871
     -1198.291
 -35062489.865 8  13356374.608 8  17397599.840    17397603.912        1316.359
      1040.703
 88  3 25  5 46 29.0800000  0  4G 6G 9G11G13
   7294358.339 8  -5931676.585 7  17967803.596    17967806.833       -2763.784
     -2161.564
 -18979243.626 7 -14861604.582 7  16440152.695    16440155.386          10.295
        13.310
  -6267162.112 8  -5010801.823 8  17510985.128    17510987.923       -1545.486
     -1209.960
 -35102338.160 8  13325324.018 8  17390017.115    17390020.427        1295.195
      1035.397
 88  3 25  5 46 59.0800000  0  4G 6G 9G11G13
   7377616.397 8  -5866800.198 8  17983647.792    17983650.331       -2798.632
     -2164.702
 -18979289.936 8 -14861640.670 6  16440145.347    16440147.608           3.150
         6.512
  -6220331.307 9  -4974310.274 9  17519896.205    17519900.041       -1561.483
     -1231.926
 -35141736.554 9  13294623.983 8  17382520.447    17382524.277        1313.959
      1009.665
 88  3 25  5 47 29.0800000  0  4G 6G 9G11G13
   7461344.639 9  -5801557.418 9  17999580.379    17999582.823       -2809.820
     -2185.568
 -18978700.838 6 -14861181.644 7  16440257.872    16440259.892         -43.843
       -25.576
  -6173205.513 8  -4937588.875 8  17528863.924    17528867.872       -1562.527
     -1223.786
 -35180685.603 9  13264274.090 8  17375108.850    17375113.038        1299.940
      1009.777
 88  3 25  5 47 59.0800000  0  4G 6G 9G11G13
   7545542.419 8  -5735948.782 8  18015603.448    18015605.563       -2824.485
     -2194.044
 -18977474.601 8 -14860226.131 7  16440488.833    16440494.197         -33.413
       -38.047
  -6125785.752 8  -4900638.412 8  17537886.723    17537891.375       -1596.211
     -1216.386
 -35219184.425 9  13234275.046 7  17367782.113    17367786.377        1258.928
      1001.488
 88  3 25  5 48 29.0800000  0  4G 6G 9G11G13
   7630206.370 8  -5669976.910 9  18031712.634    18031716.902       -2823.504
     -2198.387
 -18975611.393 7 -14858774.290 6  16440844.364    16440848.123         -54.297
       -70.800
  -6078076.097 8  -4863462.052 8  17546966.011    17546971.277       -1580.844
     -1257.477
 -35257234.639 9  13204625.548 8  17360541.541    17360545.880        1264.167
       987.780
 88  3 25  5 48 59.0800000  0  4G 6G 9G11G13
   7715333.944 8  -5603643.762 7  18047911.520    18047916.353       -2839.006
     -2217.749
 -18973111.084 6 -14856826.009 6  16441320.896    16441323.929         -98.021
       -80.661
  -6030079.524 8  -4826062.108 8  17556100.100    17556103.088       -1597.535
     -1240.246
 -35294837.243 8  13175324.830 8  17353387.251    17353390.738        1235.730
       974.986
 88  3 25  5 49 29.0800000  0  4G 6G 9G11G13
   7800924.983 8  -5536949.462 9  18064198.862    18064203.222       -2864.038
     -2240.666
 -18969971.009 6 -14854379.200 6  16441918.230    16441919.172         -87.582
       -86.862
  -5981796.213 8  -4788438.739 9  17565288.503    17565292.737       -1613.268
     -1264.014
 -35331991.303 9  13146373.636 8  17346315.627    17346320.421        1231.241
       964.752
 88  3 25  5 49 59.0800000  0  4G 6G 9G11G13
   7886979.105 8  -5469894.323 9  18080575.874    18080578.962       -2880.856
     -2242.455
 -18966188.883 7 -14851432.107 6  16442636.265    16442640.588        -132.980
      -105.442
  -5933226.740 7  -4750592.424 8  17574529.041    17574535.366       -1634.289
     -1257.968
 -35368695.657 9  13117772.854 7  17339330.967    17339336.077        1225.435
       959.638
 88  3 25  5 50 29.0800000  0  4G 6G 9G11G13
   7973491.511 9  -5402482.090 8  18097037.963    18097040.931       -2884.389
     -2237.988
 -18961766.567 7 -14847986.154 6  16443478.604    16443481.923        -141.680
      -115.676
  -5884376.088 8  -4712526.980 8  17583825.017    17583829.915       -1604.696
     -1262.330
 -35404953.571 9  13089519.944 7  17332430.665    17332435.408        1202.964
       934.920
 88  3 25  5 50 59.0800000  0  4G 6G 9G11G13
   8060460.152 8  -5334714.330 8  18113586.456    18113591.494       -2890.154
     -2262.899
 -18956703.378 8 -14844040.804 6  16444443.537    16444445.611        -165.986
      -137.617
  -5835246.809 8  -4674244.436 8  17593174.925    17593179.703       -1628.395
     -1275.951
 -35440764.940 8  13061614.998 7  17325616.972    17325621.132        1165.779
       934.348
 88  3 25  5 51 29.0800000  0  4G 6G 9G11G13
   8147883.313 8  -5266592.412 8  18130223.066    18130227.456       -2917.594
     -2266.913
 -18950998.242 7 -14839595.254 6  16445528.525    16445531.430        -218.832
      -166.766
  -5785840.695 7  -4635746.171 8  17602576.836    17602581.805       -1652.016
     -1290.932
 -35476130.895 8  13034057.132 7  17318886.223    17318891.159        1183.650
       916.384
 88  3 25  5 51 59.0800000  0  4G 6G 9G11G13
   8235759.750 8  -5198117.302 8  18146944.963    18146950.082       -2946.301
     -2298.100
 -18944649.591 7 -14834648.270 6  16446735.566    16446739.903        -229.861
      -177.161
  -5736159.355 8  -4597033.438 8  17612029.062    17612034.803       -1666.545
     -1294.760
 -35511050.488 9  13006847.079 8  17312242.432    17312245.224        1150.540
       916.104
 88  3 25  5 52 29.0800000  0  4G 6G 9G11G13
   8324087.883 8  -5129290.198 9  18163754.100    18163758.875       -2939.069
     -2291.445
 -18937656.421 6 -14829199.060 6  16448067.110    16448070.188        -252.532
      -189.315
  -5686204.436 8  -4558107.529 9  17621536.819    17621541.034       -1660.149
     -1303.627
 -35545523.714 9  12979984.847 8  17305682.135    17305685.682        1141.473
       883.905
 88  3 25  5 52 59.0800000  0  4G 6G 9G11G13
   8412865.283 7  -5060113.025 7  18180647.783    18180652.657       -2971.142
     -2332.853
 -18930018.225 4 -14823247.213 4  16449520.327    16449523.593        -254.844
      -195.250
  -5635978.471 1  -4518970.414 1  17631094.037    17631096.977       -1710.771
     -1282.556
 -35579551.435 9  12953469.762 8  17299206.556    17299211.552        1126.123
       880.002
 88  3 25  5 53 29.0800000  0  4G 6G 9G11G13
   8502087.362 7  -4990589.345 8  18197626.406    18197630.253       -2980.894
     -2314.684
 -18921736.992 4 -14816794.324 3  16451096.414    16451100.603        -293.153
      -243.195
  -5585486.313 1  -4479625.876 1  17640698.452    17640710.602       -1639.655
     -1355.158
 -35613136.878 8  12927299.304 9  17292816.239    17292819.901        1105.987
       885.607
 88  3 25  5 53 59.0800000  0  4G 6G 9G11G13
   8591755.799 8  -4920717.863 8  18214688.656    18214693.378       -3003.079
     -2328.796
 -18912808.396 8 -14809836.979 6  16452794.938    16452799.765        -311.295
      -246.501
  -5534726.627 1  -4440072.873 1  17650363.201    17650371.091       -1772.731
     -1287.161
 -35646276.924 8  12901475.905 7  17286508.735    17286513.833        1087.790
       858.329
 88  3 25  5 54 29.0800000  0  4G 6G 9G11G13
   8681867.265 7  -4850501.163 8  18231837.353    18231842.284       -3031.380
     -2344.759
 -18903233.020 7 -14802375.652 6  16454615.756    16454619.387        -317.268
      -251.913
  -5483702.534 1  -4400313.852 1  17660069.670    17660075.384       -1733.234
     -1343.445
 -35678973.529 9  12875998.048 8  17280286.847    17280291.784        1081.881
       854.457
 88  3 25  5 54 59.0800000  0  4G 6G 9G11G13
   8772418.307 8  -4779941.941 8  18249069.386    18249073.650       -3026.818
     -2358.423
 -18893011.406 3 -14794410.773 4  16456564.106    16456566.017        -361.366
      -254.454
  -5432417.584 9  -4360351.551 7  17669830.511    17669835.906       -1701.648
     -1329.762
 -35711228.805 1  12850864.064 1  17274148.306    17274154.248        1052.838
       861.641
 88  3 25  5 55 29.0800000  0  4G 6G 9G11G13
   8863407.984 6  -4709040.905 8  18266382.427    18266386.622       -3035.941
     -2352.371
 -18882142.079 7 -14785941.182 6  16458632.249    16458633.884        -382.482
      -291.942
  -5380873.017 1  -4320186.946 1  17679641.292    17679641.809       -1728.051
     -1347.192
 -35743041.231 8  12826075.195 7  17268096.430    17268099.252        1045.103
       831.647
